CWXXXX Weather Reports


Display with metric or nautical units.
time (UTC)temp
F
wind
direction
speed
MPH
gust
MPH
rain 1hr
in
rain 24hr
in
rain mn
in
humidity
%
barometer
mb
20260506123815 69 300 0.0 3.0 0.00 0.02 0.00 63 1011.3
20260506123813 59 171 7.0 14.0 0.08 0.16 0.00 82 1009.8
20260506123358 53 40 4.0 6.0 0.00 0.33 0.00 88 1006.2
20260506123344 69 293 0.0 1.0 0.00 2.99 0.00 79 1009.1
20260506123342 71 176 6.0 13.0 0.00 0.00 0.00 59 1011.8
20260506123332 64 136 7.0 12.0 0.00 1.24 0.00 85 1006.9
20260506123330 65 61 10.0 14.0 0.00 0.00 0.00 80 1010.8
20260506123316 56 159 0.0 2.0 0.15 0.41 0.00 91 1009.0
20260506123313 60 200 6.0 14.0 0.07 0.15 0.00 82 1009.3
20260506122949 53 34 2.0 4.0 0.00 0.33 0.00 88 1006.2
20260506122845 71 190 7.0 17.0 0.00 0.00 0.00 58 1011.8
20260506122836 64 51 6.0 13.0 0.00 0.00 0.00 80 1010.9
20260506122831 68 90 7.0 9.0 0.00 0.29 0.00 85 1009.0
20260506122829 64 197 3.0 13.0 0.00 1.25 0.00 85 1007.2
20260506122827 56 158 2.0 2.0 0.14 0.40 0.00 91 1009.0
20260506122818 68 91 0.0 3.0 0.00 0.02 0.00 68 1011.4
20260506122813 61 146 5.0 15.0 0.05 0.13 0.00 84 1009.3
20260506122342 71 198 12.0 13.0 0.00 0.00 0.00 59 1011.8
20260506122340 68 169 2.0 8.0 0.00 0.29 0.00 87 1009.0
20260506122334 53 67 2.0 3.0 0.00 0.33 0.00 88 1006.3
20260506122330 58 248 0.0 6.0 0.09 0.14 0.00 83 1008.9
20260506122326 63 121 4.0 14.0 0.00 1.25 0.00 86 1007.2
20260506122316 61 196 13.0 16.0 0.00 0.08 0.00 81 1009.1
20260506122312 56 153 0.0 3.0 0.11 0.37 0.00 90 1009.0
20260506121850 68 310 0.0 1.0 0.02 3.17 0.00 84 1009.1
20260506121845 71 219 5.0 13.0 0.00 0.00 0.00 63 1011.8
20260506121834 53 101 3.0 5.0 0.00 0.33 0.00 88 1006.3
20260506121832 64 49 12.0 12.0 0.00 0.00 0.00 82 1010.9
20260506121830 59 267 10.0 19.0 0.05 0.11 0.00 80 1008.8
20260506121820 57 118 2.0 3.0 0.06 0.32 0.00 89 1009.1
20260506121816 61 38 3.0 10.0 0.00 0.07 0.00 80 1008.8
20260506121345 71 221 8.0 14.0 0.00 0.00 0.00 62 1011.8
20260506121340 53 57 1.0 3.0 0.00 0.32 0.00 88 1006.4
20260506121336 60 222 4.0 19.0 0.03 0.09 0.00 77 1008.5
20260506121334 67 114 9.0 11.0 0.00 0.29 0.00 87 1009.0
20260506121326 63 178 4.0 13.0 0.00 1.25 0.00 87 1007.3
20260506121319 62 321 4.0 10.0 0.00 0.07 0.00 79 1008.7
20260506121315 68 329 0.0 5.0 0.00 0.02 0.00 67 1011.4
20260506121312 56 102 0.0 1.0 0.03 0.29 0.00 88 1009.1
20260506120843 71 191 8.0 16.0 0.00 0.00 0.00 63 1011.7
20260506120838 63 64 9.0 14.0 0.00 0.00 0.00 82 1011.0
20260506120836 62 236 10.0 12.0 0.00 0.07 0.00 79 1008.3
20260506120831 67 115 6.0 12.0 0.00 0.29 0.00 88 1009.1
20260506120826 63 126 5.0 15.0 0.00 1.25 0.00 87 1007.3
20260506120819 62 340 9.0 10.0 0.00 0.07 0.00 79 1008.5
20260506120812 57 102 0.0 3.0 0.03 0.29 0.00 87 1009.1
20260506120344 67 347 0.0 3.0 0.03 3.41 0.00 88 1009.0
20260506120342 72 190 6.0 12.0 0.00 0.00 0.00 63 1011.8
20260506120340 66 115 10.0 13.0 0.00 0.29 0.00 89 1009.0
20260506120334 53 89 1.0 3.0 0.00 0.32 0.00 88 1006.4
20260506120330 62 229 1.0 7.0 0.00 0.07 0.00 81 1008.4
20260506120326 63 81 2.0 13.0 0.00 1.25 0.00 87 1007.3
20260506120318 68 328 0.0 5.0 0.00 0.02 0.00 69 1011.4
20260506120315 57 99 0.0 3.0 0.01 0.28 0.00 87 1009.0
20260506120313 62 336 5.0 7.0 0.00 0.07 0.00 79 1008.6
20260506115842 72 194 4.0 11.0 0.00 0.00 0.00 63 1011.8
20260506115834 66 113 6.0 9.0 0.00 0.29 0.00 92 1009.2
20260506115830 63 84 8.0 13.0 0.00 0.01 0.00 82 1011.0
20260506115819 57 78 1.0 3.0 0.00 0.27 0.00 87 1009.1
20260506115813 62 20 4.0 8.0 0.00 0.07 0.00 80 1008.5
20260506115342 71 152 6.0 13.0 0.00 0.00 0.00 63 1011.9
20260506115335 53 109 1.0 6.0 0.00 0.32 0.00 88 1006.3
20260506115330 63 57 11.0 13.0 0.00 0.01 0.00 82 1011.0
20260506115326 62 139 9.0 13.0 0.00 1.25 0.00 88 1007.2
20260506115315 67 320 0.0 4.0 0.00 0.02 0.00 71 1011.5
20260506115313 62 39 4.0 8.0 0.01 0.07 0.00 78 1008.5
20260506114847 66 296 0.0 3.0 0.03 3.41 0.00 89 1009.0
20260506114845 71 172 9.0 15.0 0.00 0.00 0.00 63 1012.0
20260506114840 62 63 12.0 14.0 0.00 0.01 0.00 83 1011.0
20260506114834 53 107 2.0 9.0 0.00 0.32 0.00 88 1006.2
20260506114831 64 119 5.0 14.0 0.06 0.29 0.00 93 1009.1
20260506114819 57 57 5.0 5.0 0.00 0.26 0.00 85 1009.2
20260506114815 67 325 1.0 5.0 0.00 0.02 0.00 69 1011.5
20260506114813 62 0 4.0 8.0 0.01 0.07 0.00 77 1008.5
20260506114342 71 169 5.0 15.0 0.00 0.00 0.00 63 1012.1
20260506114335 53 112 2.0 5.0 0.00 0.33 0.00 88 1006.3
20260506114333 63 60 10.0 13.0 0.00 0.01 0.00 82 1011.0
20260506114331 64 115 3.0 12.0 0.08 0.29 0.00 94 1009.2
20260506114326 62 96 1.0 7.0 0.00 1.27 0.00 88 1007.3
20260506114324 66 288 0.0 4.0 0.00 0.02 0.00 71 1011.5
20260506114313 62 312 5.0 5.0 0.01 0.07 0.00 78 1008.5
20260506113848 71 197 6.0 15.0 0.00 0.00 0.00 63 1012.1
20260506113837 53 95 2.0 7.0 0.00 0.33 0.00 88 1006.4
20260506113834 63 98 3.0 13.0 0.08 0.29 0.00 94 1009.3
20260506113829 62 216 7.0 17.0 0.00 1.27 0.00 88 1007.3
20260506113821 66 258 0.0 1.0 0.00 0.02 0.00 71 1011.4
20260506113813 63 324 3.0 5.0 0.01 0.07 0.00 80 1008.5
20260506113348 71 142 9.0 13.0 0.00 0.00 0.00 64 1012.1
20260506113344 67 208 0.0 2.0 0.03 3.41 0.00 89 1009.0
20260506113338 53 30 5.0 5.0 0.00 0.34 0.00 88 1006.3
20260506113336 63 19 1.0 2.0 0.00 0.07 0.00 77 1007.6
20260506113334 63 127 7.0 13.0 0.08 0.29 0.00 94 1009.2
20260506113329 62 155 4.0 20.0 0.00 1.29 0.00 89 1007.3
20260506113322 62 304 4.0 4.0 0.01 0.07 0.00 81 1008.6
20260506113312 58 117 0.0 3.0 0.00 0.27 0.00 83 1009.3
20260506112843 70 209 5.0 20.0 0.00 0.00 0.00 66 1012.1
20260506112839 64 64 4.0 10.0 0.00 0.01 0.00 79 1011.1
20260506112835 53 46 2.0 9.0 0.00 0.36 0.00 88 1006.2
20260506112830 63 20 0.0 0.0 0.00 0.07 0.00 78 1007.7
20260506112826 62 88 3.0 9.0 0.00 1.32 0.00 89 1007.3
20260506112816 62 311 3.0 5.0 0.01 0.07 0.00 78 1008.6
20260506112342 70 209 16.0 19.0 0.00 0.00 0.00 66 1012.1
20260506112338 53 53 7.0 10.0 0.00 0.37 0.00 88 1006.2
20260506112336 63 20 0.0 0.0 0.00 0.07 0.00 78 1007.7
20260506112333 64 54 7.0 11.0 0.00 0.01 0.00 79 1011.1
20260506112331 63 107 3.0 9.0 0.08 0.29 0.00 95 1009.3
20260506112329 62 174 5.0 7.0 0.00 1.33 0.00 89 1007.3
20260506112316 62 355 1.0 5.0 0.02 0.07 0.00 80 1008.7
20260506112312 58 90 2.0 4.0 0.00 0.29 0.00 84 1009.4
20260506111851 70 186 10.0 18.0 0.00 0.00 0.00 66 1012.2
20260506111844 68 323 0.0 6.0 0.00 3.45 0.00 82 1009.0
20260506111837 63 103 4.0 11.0 0.08 0.29 0.00 95 1009.4
20260506111835 53 77 5.0 8.0 0.00 0.39 0.00 88 1006.3
20260506111833 65 62 9.0 11.0 0.00 0.01 0.00 76 1011.1
20260506111830 63 20 0.0 0.0 0.00 0.07 0.00 77 1007.8
20260506111826 62 219 2.0 7.0 0.00 1.34 0.00 89 1007.3
20260506111822 62 253 0.0 3.0 0.02 0.07 0.00 79 1008.8
20260506111815 58 109 1.0 6.0 0.00 0.29 0.00 84 1009.5
20260506111351 70 185 5.0 15.0 0.00 0.00 0.00 66 1012.2
20260506111335 53 50 3.0 8.0 0.00 0.39 0.00 88 1006.3
20260506111331 62 96 6.0 13.0 0.08 0.29 0.00 94 1009.4
20260506111318 64 65 0.0 5.0 0.00 0.02 0.00 75 1011.6
20260506111313 61 207 0.0 2.0 0.02 0.08 0.00 80 1008.9
20260506110846 70 231 10.0 15.0 0.00 0.00 0.00 66 1012.2
20260506110838 53 38 5.0 6.0 0.00 0.39 0.00 88 1006.4
20260506110836 63 20 0.0 1.0 0.00 0.07 0.00 79 1008.2
20260506110834 62 117 10.0 13.0 0.08 0.29 0.00 94 1009.2
20260506110830 64 48 5.0 9.0 0.00 0.01 0.00 78 1011.1
20260506110826 61 323 0.0 10.0 0.00 1.38 0.00 90 1007.4
20260506110824 64 77 0.0 3.0 0.00 0.02 0.00 75 1011.5
20260506110819 61 196 2.0 2.0 0.02 0.08 0.00 80 1009.1
20260506110812 57 92 2.0 3.0 0.00 0.31 0.00 85 1009.6
20260506110345 70 162 6.0 13.0 0.00 0.00 0.00 66 1012.3
20260506110338 53 47 6.0 7.0 0.00 0.39 0.00 88 1006.4
20260506110334 62 118 11.0 13.0 0.08 0.29 0.00 93 1009.2
20260506110330 64 59 9.0 9.0 0.00 0.01 0.00 78 1011.2
20260506110315 64 4 3.0 3.0 0.00 0.02 0.00 74 1011.5
20260506110313 58 63 3.0 6.0 0.00 0.31 0.00 85 1009.6
20260506105845 70 212 6.0 15.0 0.00 0.00 0.00 65 1012.4
20260506105838 53 24 8.0 10.0 0.00 0.39 0.00 88 1006.5
20260506105836 64 74 4.0 7.0 0.00 0.01 0.00 80 1011.2
20260506105831 62 82 7.0 11.0 0.07 0.28 0.00 92 1009.2
20260506105826 61 121 4.0 14.0 0.00 1.42 0.00 90 1007.8
20260506105817 58 123 4.0 6.0 0.00 0.31 0.00 87 1009.7
20260506105815 64 312 0.0 0.0 0.00 0.02 0.00 74 1011.6
20260506105813 61 200 2.0 2.0 0.02 0.09 0.00 80 1009.4
20260506105345 71 212 5.0 15.0 0.00 0.00 0.00 65 1012.4
20260506105339 62 217 1.0 2.0 0.00 0.07 0.00 86 1008.6
20260506105335 53 60 3.0 7.0 0.00 0.39 0.00 88 1006.5
20260506105333 63 64 6.0 10.0 0.00 0.01 0.00 81 1011.1
20260506105326 61 96 4.0 13.0 0.00 1.43 0.00 91 1007.8
20260506105319 61 59 0.0 2.0 0.00 0.07 0.00 79 1009.5
20260506105315 64 359 0.0 4.0 0.00 0.02 0.00 74 1011.7
20260506105312 58 53 0.0 0.0 0.00 0.32 0.00 86 1009.8
20260506104847 68 170 0.0 4.0 0.00 3.45 0.00 83 1008.9
20260506104842 71 184 5.0 14.0 0.00 0.00 0.00 63 1012.4
20260506104838 53 78 4.0 6.0 0.00 0.39 0.00 88 1006.6
20260506104835 63 99 9.0 11.0 0.02 0.22 0.00 91 1009.8
20260506104833 61 217 0.0 2.0 0.00 0.08 0.00 86 1008.7
20260506104830 63 49 10.0 12.0 0.00 0.01 0.00 82 1011.1
20260506104822 61 59 0.0 5.0 0.00 0.07 0.00 80 1009.5
20260506104815 64 289 0.0 0.0 0.00 0.02 0.00 75 1011.8
20260506104812 57 116 0.0 2.0 0.00 0.33 0.00 87 1009.8
20260506104345 71 152 6.0 13.0 0.00 0.00 0.00 63 1012.5
20260506104341 53 80 2.0 4.0 0.00 0.39 0.00 88 1006.6
20260506104334 63 138 2.0 8.0 0.00 0.20 0.00 90 1010.1
20260506104330 61 217 0.0 0.0 0.00 0.08 0.00 85 1008.9
20260506104326 60 198 2.0 15.0 0.00 1.44 0.00 93 1007.9
20260506104318 63 332 0.0 3.0 0.00 0.02 0.00 75 1011.9
20260506104313 61 32 2.0 4.0 0.00 0.08 0.00 80 1009.6
20260506103844 53 43 1.0 5.0 0.00 0.39 0.00 88 1006.7
20260506103842 71 221 9.0 17.0 0.00 0.00 0.00 61 1012.4
20260506103833 59 355 1.0 4.0 0.00 1.44 0.00 94 1007.9
20260506103831 63 129 4.0 10.0 0.00 0.20 0.00 89 1010.0
20260506103821 63 313 2.0 2.0 0.00 0.02 0.00 74 1011.9
20260506103816 61 17 4.0 5.0 0.00 0.08 0.00 79 1009.6
20260506103812 58 109 0.0 0.0 0.00 0.33 0.00 88 1009.8
20260506103349 68 72 0.0 9.0 0.00 3.45 0.00 81 1008.9
20260506103345 72 220 10.0 12.0 0.00 0.00 0.00 60 1012.4
20260506103338 53 45 3.0 6.0 0.00 0.39 0.00 88 1006.6
20260506103333 61 217 0.0 1.0 0.00 0.10 0.00 84 1009.0
20260506103331 63 85 3.0 7.0 0.00 0.20 0.00 89 1009.9
20260506103326 59 195 4.0 6.0 0.00 1.46 0.00 94 1007.9
20260506103322 61 346 3.0 7.0 0.00 0.08 0.00 80 1009.6
20260506103315 63 333 0.0 3.0 0.00 0.02 0.00 75 1011.9
20260506102845 72 166 8.0 13.0 0.00 0.00 0.00 60 1012.4
20260506102835 53 75 1.0 8.0 0.00 0.40 0.00 88 1006.6
20260506102831 62 82 4.0 7.0 0.00 0.01 0.00 83 1011.4
20260506102821 63 300 0.0 3.0 0.00 0.02 0.00 76 1011.9
20260506102815 57 105 0.0 2.0 0.00 0.35 0.00 83 1009.9
20260506102813 61 14 5.0 6.0 0.00 0.09 0.00 81 1009.7
20260506102348 72 198 4.0 14.0 0.00 0.00 0.00 59 1012.4
20260506102340 63 94 6.0 9.0 0.00 0.20 0.00 88 1009.9
20260506102335 53 50 3.0 6.0 0.00 0.40 0.00 88 1006.6
20260506102333 63 32 6.0 9.0 0.00 0.01 0.00 84 1011.3
20260506102330 61 217 0.0 1.0 0.00 0.11 0.00 84 1009.0
20260506102326 59 229 1.0 3.0 0.00 1.48 0.00 94 1007.9
20260506102321 63 36 2.0 5.0 0.00 0.02 0.00 76 1011.9
20260506102313 61 5 3.0 4.0 0.00 0.08 0.00 81 1009.7
20260506101847 68 140 0.0 9.0 0.00 3.45 0.00 81 1008.8
20260506101845 72 162 4.0 12.0 0.00 0.00 0.00 57 1012.4
20260506101841 63 74 4.0 9.0 0.00 0.20 0.00 88 1009.9
20260506101836 53 42 4.0 5.0 0.00 0.40 0.00 88 1006.7
20260506101833 61 217 0.0 1.0 0.00 0.11 0.00 85 1009.0
20260506101826 59 231 1.0 4.0 0.00 1.49 0.00 94 1007.9
20260506101815 63 351 0.0 3.0 0.00 0.02 0.00 76 1012.0
20260506101813 61 221 3.0 3.0 0.00 0.08 0.00 80 1009.8
20260506101345 71 133 2.0 13.0 0.00 0.00 0.00 56 1012.4
20260506101339 61 217 0.0 2.0 0.00 0.11 0.00 85 1009.1
20260506101335 53 21 1.0 5.0 0.00 0.40 0.00 88 1006.7
20260506101333 62 78 4.0 6.0 0.00 0.01 0.00 85 1011.5
20260506101331 63 115 7.0 9.0 0.00 0.20 0.00 88 1009.8
20260506101329 59 200 2.0 3.0 0.00 1.49 0.00 94 1007.9
20260506101316 61 328 1.0 4.0 0.00 0.09 0.00 79 1009.7
20260506100842 71 166 10.0 14.0 0.00 0.00 0.00 59 1012.4
20260506100835 53 59 3.0 7.0 0.00 0.40 0.00 88 1006.7
20260506100833 61 217 1.0 4.0 0.00 0.12 0.00 86 1009.2
20260506100831 63 117 6.0 11.0 0.00 0.20 0.00 87 1009.9
20260506100815 62 16 0.0 5.0 0.00 0.02 0.00 76 1011.9
20260506100813 61 320 3.0 6.0 0.00 0.09 0.00 79 1009.7
20260506100353 68 231 0.0 1.0 0.00 3.46 0.00 81 1008.7
20260506100342 71 163 5.0 12.0 0.00 0.00 0.00 59 1012.4
20260506100338 53 65 3.0 5.0 0.00 0.40 0.00 88 1006.8
20260506100331 63 109 3.0 10.0 0.00 0.20 0.00 87 1009.9
20260506100326 58 78 2.0 4.0 0.00 1.50 0.00 95 1007.9
20260506100316 61 0 2.0 7.0 0.00 0.10 0.00 78 1009.6
20260506095843 71 215 5.0 15.0 0.00 0.00 0.00 58 1012.5
20260506095838 53 75 3.0 7.0 0.00 0.40 0.00 88 1006.8
20260506095836 60 217 0.0 1.0 0.00 0.12 0.00 89 1009.1
20260506095831 63 86 3.0 9.0 0.00 0.20 0.00 87 1009.9
20260506095829 58 242 2.0 4.0 0.00 1.50 0.00 95 1008.0
20260506095819 57 129 1.0 3.0 0.00 0.37 0.00 87 1010.0
20260506095815 62 231 0.0 6.0 0.00 0.02 0.00 81 1012.0
20260506095813 62 318 4.0 8.0 0.00 0.10 0.00 78 1009.5
20260506095351 71 164 7.0 13.0 0.00 0.00 0.00 58 1012.4
20260506095338 53 57 3.0 9.0 0.00 0.40 0.00 88 1006.8
20260506095333 60 217 1.0 5.0 0.00 0.12 0.00 89 1009.2
20260506095330 63 74 9.0 10.0 0.00 0.01 0.00 82 1011.4
20260506095326 59 258 3.0 3.0 0.00 1.51 0.00 95 1008.0
20260506095321 57 90 0.0 1.0 0.00 0.37 0.00 88 1009.8
20260506095318 62 50 2.0 5.0 0.00 0.02 0.00 79 1011.9
20260506095316 61 9 9.0 9.0 0.00 0.10 0.00 79 1009.5
20260506094847 68 262 0.0 3.0 0.00 3.47 0.00 83 1008.5
20260506094842 71 216 6.0 14.0 0.00 0.00 0.00 57 1012.4
20260506094836 60 219 5.0 6.0 0.00 0.12 0.00 89 1009.2
20260506094831 63 122 1.0 8.0 0.00 0.20 0.00 87 1009.9
20260506094826 59 188 1.0 5.0 0.00 1.52 0.00 95 1008.0
20260506094822 56 90 0.0 0.0 0.00 0.37 0.00 89 1009.8
20260506094813 61 355 5.0 9.0 0.00 0.10 0.00 79 1009.5
20260506094349 71 192 6.0 14.0 0.00 0.00 0.00 57 1012.5
20260506094345 53 50 2.0 8.0 0.00 0.41 0.00 88 1006.8
20260506094337 64 63 4.0 4.0 0.00 0.01 0.00 82 1011.7
20260506094331 63 123 5.0 12.0 0.00 0.20 0.00 87 1009.9
20260506094326 59 159 1.0 4.0 0.00 1.52 0.00 95 1008.1
20260506094319 56 90 0.0 1.0 0.00 0.37 0.00 89 1009.9
20260506094315 62 358 0.0 1.0 0.00 0.02 0.00 79 1012.0
20260506093845 71 212 14.0 13.0 0.00 0.00 0.00 52 1012.4
20260506093838 53 38 3.0 5.0 0.00 0.42 0.00 88 1006.7
20260506093833 60 216 2.0 7.0 0.00 0.12 0.00 87 1009.2
20260506093831 63 196 2.0 3.0 0.00 0.01 0.00 82 1011.8
20260506093828 56 90 0.0 2.0 0.00 0.37 0.00 90 1010.0
20260506093826 59 49 2.0 6.0 0.00 1.52 0.00 95 1008.1
20260506093815 62 12 0.0 5.0 0.00 0.02 0.00 77 1011.9
20260506093813 61 35 6.0 8.0 0.00 0.10 0.00 80 1009.4
20260506093344 66 206 0.0 0.0 0.00 3.51 0.00 86 1008.5
20260506093342 71 146 7.0 13.0 0.00 0.00 0.00 59 1012.4
20260506093333 62 196 0.0 4.0 0.00 0.01 0.00 83 1011.9
20260506093331 63 113 3.0 13.0 0.00 0.20 0.00 88 1009.8
20260506093327 59 145 3.0 10.0 0.00 1.52 0.00 95 1008.1
20260506093320 56 90 1.0 2.0 0.01 0.37 0.00 91 1010.0
20260506093315 62 328 4.0 5.0 0.01 0.02 0.00 74 1012.0
20260506093313 61 311 2.0 7.0 0.00 0.10 0.00 81 1009.4
20260506092848 71 207 5.0 17.0 0.00 0.00 0.00 57 1012.5
20260506092836 62 196 2.0 6.0 0.00 0.01 0.00 83 1011.9
20260506092834 62 93 6.0 12.0 0.00 0.20 0.00 88 1009.9
20260506092829 59 153 2.0 7.0 0.00 1.54 0.00 95 1008.0
20260506092819 56 90 0.0 2.0 0.01 0.37 0.00 92 1010.0
20260506092815 62 357 0.0 0.0 0.02 0.02 0.00 76 1012.1
20260506092813 61 312 3.0 8.0 0.00 0.10 0.00 82 1009.5
20260506092348 71 196 4.0 13.0 0.00 0.00 0.00 58 1012.4
20260506092337 61 149 3.0 6.0 0.00 0.01 0.00 83 1011.8
20260506092335 53 52 3.0 5.0 0.00 0.45 0.00 88 1006.8
20260506092331 62 127 7.0 9.0 0.00 0.20 0.00 88 1010.0
20260506092327 56 90 1.0 3.0 0.02 0.37 0.00 92 1010.0
20260506092316 61 338 3.0 4.0 0.00 0.10 0.00 82 1009.5
20260506091850 66 322 0.0 0.0 0.00 3.55 0.00 87 1008.4
20260506091842 71 212 12.0 16.0 0.00 0.00 0.00 58 1012.6
20260506091837 62 107 1.0 12.0 0.00 0.20 0.00 87 1009.9
20260506091832 59 212 4.0 5.0 0.00 1.58 0.00 96 1008.0
20260506091830 61 148 3.0 7.0 0.00 0.01 0.00 82 1011.7
20260506091828 56 92 0.0 0.0 0.02 0.37 0.00 92 1009.9
20260506091815 61 348 0.0 0.0 0.02 0.02 0.00 76 1011.9
20260506091813 60 28 2.0 5.0 0.00 0.11 0.00 82 1009.6
20260506091345 71 189 6.0 12.0 0.00 0.00 0.00 58 1012.5
20260506091339 61 119 3.0 6.0 0.00 0.01 0.00 83 1011.8
20260506091335 59 186 2.0 6.0 0.00 1.59 0.00 96 1008.2
20260506091333 59 210 1.0 2.0 0.00 0.14 0.00 89 1008.9
20260506091322 60 31 4.0 7.0 0.00 0.11 0.00 82 1009.6
20260506091315 61 25 0.0 0.0 0.02 0.02 0.00 80 1011.9
20260506090842 71 195 6.0 13.0 0.00 0.00 0.00 60 1012.2
20260506090838 53 46 3.0 5.0 0.00 0.48 0.00 88 1006.7
20260506090834 62 118 3.0 13.0 0.00 0.20 0.00 88 1009.8
20260506090830 61 161 5.0 6.0 0.00 0.01 0.00 83 1011.7
20260506090827 58 128 3.0 9.0 0.00 1.60 0.00 96 1008.2
20260506090825 55 92 2.0 3.0 0.03 0.37 0.00 93 1010.0
20260506090819 61 41 0.0 0.0 0.02 0.02 0.00 80 1011.9
20260506090816 60 351 1.0 4.0 0.00 0.11 0.00 82 1009.7
20260506090350 65 269 0.0 0.0 0.00 4.09 0.00 91 1008.5
20260506090342 71 205 7.0 9.0 0.00 0.00 0.00 60 1012.2
20260506090335 53 75 3.0 8.0 0.00 0.49 0.00 88 1006.6
20260506090333 59 209 0.0 1.0 0.00 0.14 0.00 89 1008.9
20260506090330 61 121 2.0 6.0 0.00 0.01 0.00 83 1011.8
20260506090326 58 153 2.0 11.0 0.00 1.61 0.00 96 1008.2
20260506090319 55 98 2.0 3.0 0.03 0.37 0.00 93 1010.0
20260506090316 60 9 3.0 8.0 0.00 0.11 0.00 83 1009.7
20260506085842 70 164 4.0 11.0 0.00 0.00 0.00 60 1012.2
20260506085833 58 209 0.0 1.0 0.00 0.14 0.00 89 1009.1
20260506085830 61 103 3.0 6.0 0.00 0.01 0.00 83 1011.7
20260506085827 58 144 3.0 7.0 0.00 1.62 0.00 96 1008.2
20260506085821 60 41 0.0 0.0 0.02 0.02 0.00 81 1011.9
20260506085819 55 136 0.0 0.0 0.03 0.37 0.00 94 1009.9
20260506085813 60 21 5.0 7.0 0.00 0.11 0.00 81 1009.7
20260506085348 70 137 9.0 11.0 0.00 0.00 0.00 61 1012.2
20260506085335 53 60 2.0 8.0 0.00 0.52 0.00 88 1006.7
20260506085333 58 209 0.0 3.0 0.00 0.15 0.00 89 1009.0
20260506085326 58 70 3.0 5.0 0.00 1.62 0.00 96 1008.2
20260506085322 55 136 0.0 0.0 0.04 0.38 0.00 93 1009.9
20260506085318 60 351 0.0 0.0 0.02 0.02 0.00 79 1011.8
20260506085316 60 9 3.0 4.0 0.00 0.11 0.00 83 1009.6
20260506084853 63 279 0.0 2.0 0.00 4.29 0.00 94 1008.6
20260506084846 70 167 5.0 10.0 0.00 0.00 0.00 62 1012.1
20260506084839 58 209 1.0 5.0 0.00 0.15 0.00 90 1009.1
20260506084835 53 127 7.0 7.0 0.00 0.52 0.00 88 1006.7
20260506084833 61 130 5.0 7.0 0.00 0.01 0.00 84 1011.6
20260506084826 58 227 0.0 4.0 0.01 1.62 0.00 96 1008.2
20260506084824 55 136 0.0 0.0 0.04 0.38 0.00 94 1010.0
20260506084822 60 338 0.0 0.0 0.02 0.02 0.00 80 1011.8
20260506084813 60 49 2.0 5.0 0.00 0.11 0.00 83 1009.7
20260506084342 70 173 4.0 10.0 0.00 0.00 0.00 61 1012.1
20260506084339 61 192 1.0 8.0 0.00 0.01 0.00 83 1011.5
20260506084334 62 157 6.0 12.0 0.00 0.21 0.00 89 1009.7
20260506084332 58 173 6.0 10.0 0.01 1.62 0.00 96 1008.0
20260506084330 58 209 3.0 4.0 0.00 0.15 0.00 90 1009.1
20260506084325 55 136 0.0 3.0 0.05 0.38 0.00 94 1009.9
20260506084315 61 351 0.0 0.0 0.02 0.02 0.00 80 1011.9
20260506084313 60 15 2.0 8.0 0.00 0.11 0.00 84 1009.8
20260506083842 70 146 8.0 11.0 0.00 0.00 0.00 61 1012.1
20260506083839 60 164 7.0 9.0 0.00 0.01 0.00 83 1011.6
20260506083831 62 152 9.0 11.0 0.00 0.21 0.00 91 1009.8
20260506083829 58 129 0.0 7.0 0.01 1.63 0.00 96 1008.0
20260506083825 55 142 0.0 3.0 0.05 0.37 0.00 94 1009.9
20260506083815 61 332 0.0 0.0 0.02 0.02 0.00 80 1011.9
20260506083813 60 52 3.0 8.0 0.00 0.11 0.00 83 1009.7
20260506083348 63 198 0.0 2.0 0.00 4.29 0.00 95 1008.5
20260506083342 70 221 5.0 13.0 0.00 0.00 0.00 63 1012.0
20260506083335 53 55 9.0 11.0 0.00 0.54 0.00 88 1006.4
20260506083333 58 202 2.0 3.0 0.00 0.15 0.00 90 1009.1
20260506083330 61 190 2.0 8.0 0.00 0.01 0.00 83 1011.5
20260506083328 55 144 2.0 3.0 0.04 0.37 0.00 94 1009.8
20260506083326 58 121 6.0 6.0 0.01 1.65 0.00 96 1008.0
20260506083315 61 4 0.0 1.0 0.00 0.00 0.00 79 1011.9
20260506083313 60 32 4.0 5.0 0.00 0.11 0.00 84 1009.7
20260506082846 69 162 5.0 9.0 0.00 0.00 0.00 66 1012.1
20260506082839 53 78 5.0 7.0 0.00 0.55 0.00 88 1006.4
20260506082837 61 111 3.0 7.0 0.00 0.22 0.00 92 1009.8
20260506082833 58 202 0.0 0.0 0.00 0.15 0.00 90 1009.1
20260506082830 61 155 3.0 7.0 0.00 0.01 0.00 82 1011.5
20260506082827 58 133 1.0 7.0 0.01 1.69 0.00 96 1008.0
20260506082821 55 160 0.0 0.0 0.06 0.37 0.00 94 1009.6
20260506082819 60 332 3.0 4.0 0.00 0.11 0.00 85 1009.8
20260506082816 62 6 0.0 0.0 0.00 0.00 0.00 77 1011.8
20260506082349 69 194 5.0 13.0 0.00 0.00 0.00 66 1012.1
20260506082338 53 77 7.0 8.0 0.00 0.55 0.00 88 1006.4
20260506082334 61 90 3.0 9.0 0.00 0.22 0.00 92 1009.8
20260506082330 60 154 2.0 8.0 0.00 0.02 0.00 82 1011.5
20260506082326 58 154 5.0 7.0 0.01 1.78 0.00 96 1008.0
20260506082321 62 77 0.0 0.0 0.00 0.00 0.00 77 1011.8
20260506082319 59 304 2.0 4.0 0.00 0.11 0.00 85 1009.9
20260506081845 62 258 0.0 0.0 0.00 4.36 0.00 95 1008.5
20260506081842 68 162 4.0 11.0 0.00 0.00 0.00 66 1012.2
20260506081838 53 25 6.0 8.0 0.00 0.56 0.00 88 1006.3
20260506081833 58 202 0.0 0.0 0.00 0.15 0.00 91 1009.0
20260506081831 61 113 6.0 9.0 0.00 0.24 0.00 93 1009.8
20260506081826 58 170 1.0 17.0 0.01 1.84 0.00 96 1008.0
20260506081822 55 136 0.0 0.0 0.07 0.36 0.00 94 1009.6
20260506081816 62 319 0.0 0.0 0.00 0.00 0.00 76 1011.6
20260506081345 68 158 5.0 12.0 0.00 0.00 0.00 68 1012.2
20260506081337 61 106 3.0 7.0 0.00 0.25 0.00 93 1009.8
20260506081335 53 78 4.0 10.0 0.00 0.57 0.00 88 1006.2
20260506081333 60 142 5.0 7.0 0.00 0.02 0.00 82 1011.6
20260506081319 55 127 0.0 0.0 0.07 0.35 0.00 94 1009.6
20260506081316 62 316 0.0 4.0 0.00 0.00 0.00 75 1011.6
20260506081313 59 319 3.0 4.0 0.00 0.11 0.00 87 1009.9
20260506080846 67 215 3.0 8.0 0.00 0.00 0.00 69 1012.3
20260506080840 60 115 6.0 9.0 0.00 0.25 0.00 93 1009.8
20260506080838 53 79 8.0 10.0 0.00 0.59 0.00 88 1006.2
20260506080830 58 202 0.0 0.0 0.00 0.16 0.00 91 1009.2
20260506080819 55 117 0.0 0.0 0.07 0.35 0.00 94 1009.6
20260506080816 62 23 2.0 5.0 0.00 0.00 0.00 77 1011.7
20260506080813 59 328 3.0 4.0 0.00 0.11 0.00 87 1009.8
20260506080345 61 260 0.0 3.0 0.00 4.39 0.00 96 1008.5
20260506080342 67 160 2.0 11.0 0.00 0.00 0.00 69 1012.2
20260506080338 53 42 5.0 9.0 0.00 0.60 0.00 88 1006.0
20260506080332 61 132 3.0 7.0 0.00 0.03 0.00 81 1011.6
20260506080330 58 202 0.0 0.0 0.00 0.16 0.00 91 1009.2
20260506080322 62 294 3.0 6.0 0.00 0.00 0.00 76 1011.8
20260506080319 54 113 0.0 0.0 0.08 0.34 0.00 94 1009.6
20260506080313 58 309 3.0 4.0 0.00 0.11 0.00 87 1009.9
20260506073345 61 147 0.0 0.0 0.00 4.40 0.00 96 1008.5
20260506073342 66 224 3.0 10.0 0.00 0.00 0.00 72 1012.1
20260506073340 59 133 8.0 10.0 0.00 0.35 0.00 95 1009.9
20260506073333 57 202 0.0 0.0 0.00 0.17 0.00 93 1009.2
20260506073331 61 80 8.0 9.0 0.00 0.05 0.00 84 1011.4
20260506073319 63 306 0.0 1.0 0.00 0.00 0.00 73 1011.7
20260506073313 58 115 1.0 2.0 0.00 0.11 0.00 89 1010.1
20260506072848 66 181 3.0 11.0 0.00 0.00 0.00 73 1012.0
20260506072838 54 5 6.0 7.0 0.02 0.62 0.00 88 1006.2
20260506072833 57 202 0.0 0.0 0.00 0.17 0.00 93 1009.2
20260506072830 61 103 2.0 9.0 0.00 0.05 0.00 83 1011.5
20260506072826 57 220 6.0 7.0 0.00 1.89 0.00 96 1007.8
20260506072822 62 341 0.0 0.0 0.00 0.00 0.00 70 1011.8
20260506072820 54 109 0.0 0.0 0.08 0.30 0.00 94 1009.9
20260506072344 66 166 6.0 10.0 0.00 0.00 0.00 73 1012.2
20260506072337 59 115 7.0 11.0 0.00 0.37 0.00 95 1010.0
20260506072330 56 202 0.0 0.0 0.00 0.17 0.00 93 1009.2
20260506072322 54 109 0.0 0.0 0.08 0.29 0.00 94 1009.9
20260506072319 62 312 0.0 4.0 0.00 0.00 0.00 72 1011.8
20260506071845 61 263 0.0 0.0 0.00 4.40 0.00 96 1008.4
20260506071843 65 144 5.0 9.0 0.00 0.00 0.00 74 1012.2
20260506071837 59 117 4.0 10.0 0.00 0.39 0.00 96 1009.9
20260506071835 53 32 3.0 8.0 0.03 0.62 0.00 88 1006.1
20260506071832 57 37 1.0 2.0 0.00 1.89 0.00 96 1007.8
20260506071830 56 202 0.0 0.0 0.00 0.17 0.00 93 1009.3
20260506071820 54 109 0.0 0.0 0.07 0.29 0.00 94 1010.0
20260506071816 62 319 2.0 3.0 0.00 0.00 0.00 73 1011.8
20260506071813 57 193 1.0 5.0 0.01 0.11 0.00 90 1010.2
20260506071341 65 184 3.0 9.0 0.00 0.00 0.00 75 1012.2
20260506071335 53 25 3.0 8.0 0.03 0.62 0.00 88 1006.3
20260506071333 60 69 4.0 7.0 0.00 0.05 0.00 83 1011.5
20260506071331 59 101 4.0 11.0 0.00 0.40 0.00 96 1009.9
20260506071326 57 37 0.0 4.0 0.00 1.89 0.00 96 1007.7
20260506071322 62 22 1.0 4.0 0.00 0.00 0.00 75 1011.8
20260506071319 54 108 0.0 0.0 0.06 0.27 0.00 94 1010.1
20260506071316 57 186 1.0 5.0 0.01 0.11 0.00 90 1010.3
20260506070844 65 219 2.0 7.0 0.00 0.00 0.00 75 1012.3
20260506070839 52 39 5.0 7.0 0.03 0.62 0.00 88 1006.4
20260506070833 60 79 4.0 8.0 0.00 0.05 0.00 83 1011.6
20260506070831 59 90 4.0 11.0 0.00 0.41 0.00 97 1009.8
20260506070826 57 29 3.0 4.0 0.00 1.90 0.00 96 1007.7
20260506070819 54 166 0.0 0.0 0.07 0.27 0.00 94 1010.1
20260506070816 57 186 4.0 7.0 0.01 0.11 0.00 90 1010.3
20260506070348 65 158 6.0 9.0 0.00 0.00 0.00 76 1012.3
20260506070345 61 63 0.0 2.0 0.04 4.42 0.00 96 1008.3
20260506070340 59 123 4.0 7.0 0.00 0.42 0.00 97 1009.8
20260506070335 52 343 2.0 5.0 0.05 0.62 0.00 88 1006.5
20260506070333 56 202 0.0 0.0 0.02 0.17 0.00 94 1009.4
20260506070330 61 139 1.0 5.0 0.00 0.05 0.00 84 1011.7
20260506070327 57 134 2.0 2.0 0.00 1.91 0.00 96 1007.7
20260506070322 54 166 0.0 0.0 0.05 0.25 0.00 94 1010.0
20260506070319 62 319 0.0 4.0 0.00 0.00 0.00 75 1011.7
20260506070313 58 175 6.0 6.0 0.01 0.11 0.00 90 1010.4
20260506062341 64 160 6.0 11.0 0.00 0.00 0.00 81 1012.1
20260506062335 51 28 5.0 5.0 0.12 0.60 0.00 88 1006.7
20260506062333 56 203 0.0 0.0 0.01 0.16 0.00 94 1009.9
20260506062331 59 109 2.0 6.0 0.00 0.46 0.00 97 1010.4
20260506062327 55 248 1.0 2.0 0.00 2.09 0.00 96 1007.5
20260506062325 54 155 0.0 0.0 0.01 0.21 0.00 94 1009.8
20260506062319 58 179 5.0 7.0 0.00 0.10 0.00 89 1010.5
20260506062316 64 316 0.0 0.0 0.00 0.00 0.00 69 1011.8
20260506061845 60 301 0.0 0.0 0.19 4.41 0.00 96 1008.3
20260506061841 64 165 6.0 11.0 0.00 0.00 0.00 81 1012.0
20260506061836 51 13 2.0 7.0 0.13 0.59 0.00 88 1006.7
20260506061831 58 115 4.0 7.0 0.00 0.46 0.00 97 1010.3
20260506061819 54 153 0.0 0.0 0.01 0.21 0.00 94 1009.8
20260506061816 64 310 0.0 0.0 0.00 0.00 0.00 70 1011.9
20260506061813 58 191 3.0 7.0 0.00 0.10 0.00 89 1010.5
20260506061345 63 184 4.0 12.0 0.00 0.00 0.00 82 1012.0
20260506061341 61 74 1.0 3.0 0.00 0.06 0.00 82 1011.5
20260506061338 51 24 2.0 6.0 0.14 0.59 0.00 88 1006.7
20260506061334 58 82 2.0 7.0 0.00 0.47 0.00 97 1010.3
20260506061332 55 245 1.0 3.0 0.00 2.09 0.00 96 1007.6
20260506061330 56 203 0.0 0.0 0.00 0.15 0.00 94 1010.0
20260506061319 63 311 0.0 0.0 0.00 0.00 0.00 71 1011.9
20260506061315 58 175 2.0 8.0 0.00 0.10 0.00 88 1010.3
20260506060841 63 144 7.0 9.0 0.00 0.00 0.00 82 1011.9
20260506060838 51 5 2.0 7.0 0.16 0.59 0.00 88 1006.8
20260506060834 58 111 6.0 7.0 0.00 0.47 0.00 97 1010.3
20260506060830 61 74 1.0 2.0 0.00 0.06 0.00 83 1011.6
20260506060826 55 246 1.0 2.0 0.00 2.09 0.00 96 1007.6
20260506060816 63 311 0.0 0.0 0.00 0.00 0.00 72 1011.8
20260506060813 58 182 6.0 8.0 0.00 0.10 0.00 87 1010.5
20260506060351 60 301 0.0 0.0 0.15 4.37 0.00 96 1008.4
20260506060341 63 169 8.0 10.0 0.00 0.00 0.00 83 1011.9
20260506060338 51 0 3.0 8.0 0.15 0.57 0.00 88 1006.9
20260506060334 58 113 2.0 6.0 0.00 0.48 0.00 97 1010.2
20260506060330 60 74 1.0 3.0 0.00 0.06 0.00 83 1011.6
20260506060325 62 310 0.0 0.0 0.00 0.00 0.00 72 1011.8
20260506060319 54 177 3.0 5.0 0.00 0.20 0.00 94 1009.9
20260506060313 58 193 3.0 5.0 0.00 0.10 0.00 87 1010.2
20260506051341 62 117 5.0 8.0 0.00 0.00 0.00 85 1011.9
20260506051335 51 57 2.0 4.0 0.09 0.44 0.00 87 1006.7
20260506051333 56 203 0.0 2.0 0.00 0.14 0.00 94 1009.5
20260506051331 58 115 3.0 6.0 0.03 0.48 0.00 97 1010.7
20260506051329 53 125 0.0 0.0 0.00 0.19 0.00 95 1010.2
20260506051316 60 162 0.0 3.0 0.00 0.00 0.00 75 1011.5
20260506051313 57 313 1.0 4.0 0.00 0.10 0.00 90 1010.2
20260506050847 62 155 4.0 7.0 0.00 0.00 0.00 85 1011.8
20260506050842 51 350 1.0 3.0 0.07 0.42 0.00 87 1006.7
20260506050837 58 119 4.0 6.0 0.03 0.48 0.00 97 1010.9
20260506050833 58 236 5.0 8.0 0.00 0.06 0.00 87 1011.6
20260506050830 56 203 0.0 2.0 0.00 0.14 0.00 94 1009.6
20260506050823 53 125 0.0 0.0 0.00 0.19 0.00 95 1010.0
20260506050816 59 138 0.0 0.0 0.00 0.00 0.00 76 1011.5
20260506050813 57 313 2.0 3.0 0.00 0.10 0.00 91 1010.1
20260506050345 60 301 0.0 0.0 0.45 4.22 0.00 96 1008.4
20260506050341 62 155 5.0 9.0 0.00 0.00 0.00 86 1011.8
20260506050336 51 55 0.0 1.0 0.06 0.41 0.00 87 1006.7
20260506050334 58 232 1.0 3.0 0.00 0.06 0.00 87 1011.5
20260506050331 58 114 3.0 6.0 0.03 0.48 0.00 97 1011.0
20260506050325 53 125 0.0 0.0 0.00 0.19 0.00 95 1010.0
20260506050322 60 218 0.0 2.0 0.00 0.00 0.00 76 1011.4
20260506050313 57 313 1.0 3.0 0.00 0.10 0.00 91 1010.0
20260506044854 60 301 0.0 0.0 0.55 4.20 0.00 96 1008.3
20260506044843 62 142 2.0 6.0 0.00 0.00 0.00 86 1011.8
20260506044836 52 22 3.0 4.0 0.03 0.38 0.00 85 1006.3
20260506044831 57 115 4.0 8.0 0.03 0.47 0.00 97 1010.6
20260506044828 53 125 0.0 0.0 0.00 0.19 0.00 95 1009.7
20260506044816 60 141 3.0 7.0 0.00 0.00 0.00 76 1011.4
20260506044812 56 35 1.0 1.0 0.00 0.10 0.00 91 1010.0
20260506044347 62 164 2.0 5.0 0.00 0.00 0.00 86 1011.8
20260506044339 52 24 2.0 4.0 0.01 0.37 0.00 85 1006.3
20260506044337 57 102 3.0 8.0 0.03 0.46 0.00 97 1010.8
20260506044333 55 203 0.0 1.0 0.00 0.14 0.00 94 1009.3
20260506044327 55 34 0.0 3.0 0.00 2.49 0.00 96 1008.1
20260506044319 53 125 0.0 0.0 0.00 0.19 0.00 95 1009.7
20260506044316 59 125 0.0 6.0 0.00 0.00 0.00 76 1011.5
20260506044313 56 35 0.0 4.0 0.00 0.10 0.00 91 1010.2
20260506043846 62 159 1.0 6.0 0.00 0.00 0.00 86 1011.7
20260506043843 52 340 3.0 4.0 0.01 0.37 0.00 85 1006.2
20260506043834 55 41 3.0 3.0 0.00 2.49 0.00 96 1008.1
20260506043830 55 203 0.0 1.0 0.00 0.14 0.00 94 1009.4
20260506043825 53 125 0.0 0.0 0.00 0.19 0.00 95 1009.9
20260506043822 59 127 6.0 7.0 0.00 0.00 0.00 76 1011.4
20260506043816 56 35 3.0 3.0 0.00 0.10 0.00 91 1010.0
20260506043345 59 301 0.0 0.0 0.60 4.12 0.00 96 1008.4
20260506043336 52 329 3.0 5.0 0.00 0.35 0.00 84 1006.2
20260506043334 57 103 3.0 7.0 0.03 0.45 0.00 97 1010.9
20260506043327 55 28 2.0 3.0 0.00 2.49 0.00 96 1008.1
20260506043325 53 125 0.0 0.0 0.00 0.19 0.00 95 1009.9
20260506043322 59 127 3.0 6.0 0.00 0.00 0.00 76 1011.3
20260506043313 56 95 0.0 1.0 0.00 0.10 0.00 91 1010.1
20260506042843 62 162 1.0 4.0 0.00 0.00 0.00 86 1011.6
20260506042836 52 327 2.0 3.0 0.00 0.35 0.00 84 1006.1
20260506042834 57 72 1.0 9.0 0.05 0.45 0.00 96 1010.7
20260506042830 55 203 1.0 2.0 0.00 0.14 0.00 94 1009.4
20260506042828 53 125 0.0 0.0 0.00 0.19 0.00 95 1009.9
20260506042819 56 95 0.0 1.0 0.00 0.10 0.00 91 1010.1
20260506042345 52 339 2.0 2.0 0.00 0.35 0.00 83 1006.2
20260506042341 62 152 1.0 7.0 0.00 0.00 0.00 85 1011.7
20260506042331 57 97 3.0 7.0 0.07 0.45 0.00 96 1010.7
20260506042328 53 125 0.0 0.0 0.00 0.19 0.00 95 1010.0
20260506042322 60 117 0.0 7.0 0.00 0.00 0.00 74 1011.2
20260506042319 56 95 0.0 1.0 0.00 0.10 0.00 91 1010.0
20260506041848 60 301 0.0 0.0 0.88 4.04 0.00 96 1008.2
20260506041836 52 338 1.0 4.0 0.00 0.35 0.00 83 1006.1
20260506041831 57 93 0.0 3.0 0.07 0.44 0.00 96 1010.8
20260506041820 53 125 0.0 0.0 0.00 0.19 0.00 95 1009.9
20260506041816 60 165 4.0 5.0 0.00 0.00 0.00 73 1011.1
20260506041814 57 248 2.0 3.0 0.00 0.06 0.00 88 1011.5
20260506041342 62 133 2.0 6.0 0.00 0.00 0.00 85 1011.4
20260506041336 52 305 2.0 4.0 0.00 0.35 0.00 84 1006.0
20260506041331 57 93 1.0 3.0 0.07 0.44 0.00 97 1010.7
20260506041327 55 250 1.0 3.0 0.00 2.50 0.00 95 1008.4
20260506041319 53 125 0.0 0.0 0.00 0.19 0.00 95 1010.1
20260506041316 60 133 3.0 4.0 0.00 0.00 0.00 73 1011.1
20260506041313 56 219 2.0 3.0 0.00 0.10 0.00 91 1010.1
20260506040842 52 321 2.0 4.0 0.00 0.35 0.00 84 1005.9
20260506040831 57 100 1.0 4.0 0.06 0.44 0.00 96 1010.7
20260506040823 53 125 0.0 0.0 0.00 0.19 0.00 95 1010.2
20260506040816 61 162 4.0 4.0 0.00 0.00 0.00 72 1011.2
20260506040348 62 140 3.0 5.0 0.00 0.00 0.00 85 1011.5
20260506040337 52 328 2.0 4.0 0.00 0.35 0.00 84 1005.9
20260506040331 57 78 2.0 7.0 0.07 0.44 0.00 96 1010.6
20260506040329 53 125 0.0 0.0 0.00 0.19 0.00 95 1010.2
20260506040316 61 166 0.0 0.0 0.00 0.00 0.00 73 1011.2
20260506040312 57 217 2.0 3.0 0.00 0.10 0.00 91 1010.2
20260506035852 62 137 5.0 6.0 0.00 0.00 0.00 85 1011.5
20260506035836 52 327 3.0 3.0 0.00 0.35 0.00 84 1005.8
20260506035834 57 109 3.0 6.0 0.08 0.44 0.00 96 1010.6
20260506035822 53 125 0.0 0.0 0.00 0.19 0.00 95 1010.2
20260506035816 61 166 0.0 0.0 0.00 0.00 0.00 73 1011.2
20260506035813 57 217 2.0 4.0 0.00 0.10 0.00 91 1010.4
20260506035341 62 135 3.0 6.0 0.00 0.00 0.00 85 1011.4
20260506035337 57 86 4.0 7.0 0.09 0.43 0.00 96 1010.6
20260506035333 55 203 0.0 0.0 0.00 0.14 0.00 94 1009.4
20260506035330 55 62 0.0 2.0 0.00 2.50 0.00 96 1008.2
20260506035322 53 125 0.0 0.0 0.00 0.19 0.00 95 1010.3
20260506035319 57 163 1.0 2.0 0.00 0.10 0.00 91 1010.3
20260506034851 60 236 0.0 0.0 1.07 3.88 0.00 96 1008.2
20260506034841 62 135 4.0 6.0 0.00 0.00 0.00 85 1011.4
20260506034837 57 103 4.0 6.0 0.11 0.43 0.00 96 1010.6
20260506034828 55 56 1.0 1.0 0.00 2.50 0.00 95 1008.2
20260506034819 53 125 0.0 0.0 0.00 0.19 0.00 95 1010.3
20260506034816 61 37 0.0 0.0 0.00 0.00 0.00 73 1011.3
20260506034347 62 159 6.0 7.0 0.00 0.00 0.00 85 1011.4
20260506034345 52 323 3.0 7.0 0.00 0.35 0.00 85 1005.7
20260506034334 57 98 3.0 4.0 0.11 0.42 0.00 96 1010.5
20260506034330 55 203 0.0 0.0 0.00 0.14 0.00 94 1009.6
20260506034322 61 37 0.0 0.0 0.00 0.00 0.00 73 1011.2
20260506034319 53 125 0.0 0.0 0.00 0.19 0.00 95 1010.4
20260506034312 57 178 3.0 4.0 0.00 0.10 0.00 91 1010.3
20260506033847 62 175 2.0 6.0 0.00 0.00 0.00 85 1011.4
20260506033839 52 330 3.0 5.0 0.00 0.35 0.00 85 1005.8
20260506033831 57 92 2.0 6.0 0.12 0.42 0.00 96 1010.7
20260506033822 57 216 1.0 3.0 0.00 0.10 0.00 91 1010.5
20260506033816 61 37 0.0 0.0 0.00 0.00 0.00 73 1011.3
20260506033345 60 237 0.0 0.0 0.97 3.85 0.00 96 1008.2
20260506033341 62 164 3.0 9.0 0.00 0.00 0.00 85 1011.4
20260506033339 52 325 4.0 4.0 0.00 0.35 0.00 86 1006.2
20260506033332 57 106 3.0 4.0 0.11 0.41 0.00 96 1010.8
20260506033330 55 29 4.0 4.0 0.00 2.51 0.00 96 1008.4
20260506033319 53 125 0.0 0.0 0.00 0.19 0.00 95 1010.4
20260506033316 57 190 1.0 3.0 0.00 0.10 0.00 91 1010.8
20260506032846 62 140 3.0 7.0 0.00 0.00 0.00 85 1011.4
20260506032837 52 334 2.0 3.0 0.00 0.35 0.00 86 1006.2
20260506032833 55 203 0.0 0.0 0.00 0.14 0.00 94 1009.9
20260506032831 57 103 2.0 4.0 0.10 0.40 0.00 96 1010.9
20260506032827 55 157 0.0 2.0 0.00 2.51 0.00 95 1008.7
20260506032821 57 223 2.0 4.0 0.00 0.10 0.00 91 1010.8
20260506032819 53 125 0.0 2.0 0.00 0.19 0.00 95 1010.5
20260506032345 62 151 5.0 8.0 0.00 0.00 0.00 85 1011.4
20260506032339 52 315 3.0 4.0 0.00 0.35 0.00 87 1006.4
20260506032334 57 123 1.0 5.0 0.08 0.38 0.00 96 1010.9
20260506032330 55 203 0.0 0.0 0.00 0.14 0.00 94 1010.0
20260506032328 55 158 2.0 3.0 0.00 2.51 0.00 95 1008.7
20260506032319 53 119 0.0 0.0 0.00 0.19 0.00 95 1010.5
20260506032316 61 22 0.0 3.0 0.00 0.00 0.00 72 1011.2
20260506031845 60 235 0.0 0.0 0.75 3.53 0.00 96 1008.3
20260506031841 62 130 3.0 7.0 0.00 0.00 0.00 85 1011.3
20260506031836 52 292 1.0 3.0 0.00 0.35 0.00 87 1006.5
20260506031833 55 203 0.0 0.0 0.00 0.14 0.00 94 1010.1
20260506031831 57 121 5.0 6.0 0.07 0.37 0.00 96 1010.7
20260506031822 53 119 0.0 0.0 0.00 0.19 0.00 95 1010.7
20260506031820 61 332 0.0 3.0 0.00 0.00 0.00 72 1011.3
20260506031812 57 221 3.0 3.0 0.00 0.10 0.00 91 1010.8
20260506031346 62 128 1.0 6.0 0.00 0.00 0.00 85 1011.4
20260506031336 52 292 2.0 3.0 0.00 0.35 0.00 87 1006.7
20260506031334 57 129 3.0 4.0 0.07 0.37 0.00 96 1010.7
20260506031327 54 32 0.0 1.0 0.00 2.51 0.00 95 1008.5
20260506031325 53 117 0.0 0.0 0.00 0.19 0.00 95 1010.7
20260506031322 57 234 2.0 3.0 0.00 0.10 0.00 91 1010.9
20260506031319 61 344 0.0 0.0 0.00 0.00 0.00 72 1011.3
20260506030845 52 292 3.0 4.0 0.00 0.35 0.00 87 1006.9
20260506030841 62 148 2.0 3.0 0.00 0.00 0.00 85 1011.4
20260506030834 57 79 2.0 4.0 0.07 0.37 0.00 96 1010.6
20260506030830 55 203 0.0 0.0 0.00 0.14 0.00 94 1010.1
20260506030822 53 116 0.0 0.0 0.00 0.19 0.00 95 1010.7
20260506030820 60 346 0.0 3.0 0.00 0.00 0.00 73 1011.4
20260506030813 57 232 3.0 4.0 0.00 0.10 0.00 91 1010.9
20260506030345 60 80 0.0 0.0 0.48 3.26 0.00 96 1008.3
20260506030339 52 284 3.0 3.0 0.00 0.35 0.00 87 1007.0
20260506030336 55 203 0.0 0.0 0.00 0.14 0.00 94 1010.2
20260506030334 57 80 2.0 4.0 0.07 0.37 0.00 96 1010.8
20260506030328 54 32 2.0 3.0 0.00 2.51 0.00 95 1008.6
20260506030319 60 43 3.0 5.0 0.00 0.00 0.00 76 1011.4
20260506025843 52 284 1.0 3.0 0.00 0.35 0.00 87 1006.9
20260506025841 62 163 1.0 5.0 0.00 0.00 0.00 85 1011.5
20260506025837 57 77 2.0 4.0 0.05 0.35 0.00 96 1010.9
20260506025833 55 203 0.0 0.0 0.00 0.14 0.00 94 1010.3
20260506025827 55 244 1.0 3.0 0.00 2.51 0.00 95 1008.6
20260506025819 53 115 0.0 0.0 0.00 0.19 0.00 95 1010.6
20260506025817 60 60 4.0 5.0 0.00 0.00 0.00 74 1011.3
20260506025813 57 179 2.0 3.0 0.00 0.10 0.00 91 1011.1
20260506025347 62 186 2.0 5.0 0.00 0.00 0.00 85 1011.5
20260506025336 52 284 2.0 3.0 0.00 0.35 0.00 87 1007.0
20260506025334 57 91 3.0 6.0 0.03 0.33 0.00 96 1011.0
20260506025327 55 244 2.0 3.0 0.00 2.51 0.00 95 1008.6
20260506025319 57 141 1.0 3.0 0.00 0.10 0.00 91 1011.1
20260506025317 61 1 2.0 4.0 0.00 0.00 0.00 72 1011.3
20260506024848 59 81 0.0 0.0 0.29 3.07 0.00 95 1008.5
20260506024842 62 194 2.0 6.0 0.00 0.00 0.00 85 1011.5
20260506024839 52 284 2.0 3.0 0.00 0.35 0.00 87 1006.9
20260506024834 57 120 2.0 6.0 0.02 0.32 0.00 96 1011.0
20260506024830 54 243 1.0 3.0 0.00 2.52 0.00 95 1008.6
20260506024819 53 115 0.0 0.0 0.00 0.19 0.00 95 1010.7
20260506024817 61 316 4.0 4.0 0.00 0.00 0.00 73 1011.3
20260506024341 62 169 3.0 7.0 0.00 0.00 0.00 85 1011.4
20260506024339 52 284 3.0 3.0 0.00 0.35 0.00 87 1006.9
20260506024333 55 203 0.0 0.0 0.00 0.14 0.00 94 1010.4
20260506024327 55 245 2.0 5.0 0.00 2.52 0.00 95 1008.5
20260506024319 53 116 0.0 0.0 0.00 0.19 0.00 95 1010.7
20260506024317 60 322 0.0 1.0 0.00 0.00 0.00 74 1011.4
20260506024312 57 175 1.0 3.0 0.00 0.10 0.00 91 1011.1
20260506023842 62 156 2.0 8.0 0.00 0.00 0.00 85 1011.3
20260506023836 52 284 2.0 3.0 0.00 0.35 0.00 87 1007.0
20260506023834 57 94 3.0 7.0 0.00 0.29 0.00 96 1011.0
20260506023830 55 255 1.0 3.0 0.00 2.53 0.00 95 1008.5
20260506023823 60 9 1.0 3.0 0.00 0.00 0.00 75 1011.6
20260506023819 53 116 0.0 0.0 0.00 0.19 0.00 95 1010.8
20260506023812 57 175 1.0 2.0 0.00 0.10 0.00 91 1011.2
20260506023345 60 294 0.0 0.0 0.18 2.96 0.00 95 1008.7
20260506023343 52 284 2.0 3.0 0.00 0.35 0.00 88 1007.1
20260506023334 57 61 4.0 9.0 0.00 0.29 0.00 96 1011.1
20260506023331 55 34 2.0 2.0 0.00 2.53 0.00 95 1008.6
20260506023319 53 116 0.0 0.0 0.00 0.19 0.00 95 1010.7
20260506023317 60 27 0.0 1.0 0.00 0.00 0.00 75 1011.6
20260506022842 62 162 3.0 6.0 0.00 0.00 0.00 84 1011.2
20260506022836 52 284 1.0 3.0 0.00 0.35 0.00 88 1007.1
20260506022834 57 89 3.0 6.0 0.00 0.29 0.00 96 1011.1
20260506022828 53 119 0.0 0.0 0.00 0.19 0.00 95 1010.6
20260506022817 61 325 0.0 0.0 0.00 0.00 0.00 75 1011.6
20260506022815 57 67 2.0 3.0 0.00 0.10 0.00 91 1011.0
20260506022344 61 174 4.0 9.0 0.00 0.00 0.00 84 1011.3
20260506022339 52 284 2.0 3.0 0.00 0.35 0.00 88 1007.1
20260506022331 57 90 4.0 7.0 0.00 0.29 0.00 96 1011.0
20260506022323 61 322 0.0 0.0 0.00 0.00 0.00 75 1011.7
20260506022319 53 175 0.0 0.0 0.00 0.19 0.00 95 1010.6
20260506021856 60 118 0.0 0.0 0.02 2.80 0.00 95 1008.2
20260506021841 62 162 4.0 6.0 0.00 0.00 0.00 84 1011.3
20260506021839 52 294 1.0 3.0 0.00 0.35 0.00 88 1007.1
20260506021837 54 203 0.0 0.0 0.00 0.14 0.00 93 1010.3
20260506021834 57 77 3.0 8.0 0.00 0.29 0.00 96 1011.1
20260506021824 53 176 0.0 0.0 0.00 0.19 0.00 95 1010.6
20260506021817 61 337 0.0 1.0 0.00 0.00 0.00 75 1011.8
20260506021813 57 187 3.0 5.0 0.00 0.10 0.00 91 1010.9
20260506021342 62 155 2.0 7.0 0.00 0.00 0.00 84 1011.3
20260506021337 55 203 0.0 0.0 0.00 0.14 0.00 93 1010.3
20260506021333 57 65 3.0 8.0 0.00 0.29 0.00 96 1011.0
20260506021329 53 176 0.0 0.0 0.00 0.19 0.00 95 1010.6
20260506021320 61 19 0.0 0.0 0.00 0.00 0.00 75 1011.8
20260506021317 57 221 2.0 3.0 0.00 0.10 0.00 91 1010.8
20260506020844 62 186 4.0 7.0 0.00 0.00 0.00 84 1011.3
20260506020839 56 107 2.0 8.0 0.00 0.29 0.00 95 1011.1
20260506020834 55 203 0.0 0.0 0.00 0.14 0.00 93 1010.4
20260506020820 61 355 0.0 0.0 0.00 0.00 0.00 76 1011.9
20260506020814 57 221 2.0 3.0 0.00 0.10 0.00 91 1010.8
20260506020349 60 118 0.0 0.0 0.01 2.81 0.00 95 1008.5
20260506020344 62 158 5.0 8.0 0.00 0.00 0.00 84 1011.4
20260506020340 52 294 1.0 3.0 0.00 0.35 0.00 88 1007.2
20260506020337 56 74 2.0 5.0 0.00 0.29 0.00 95 1011.3
20260506020333 55 203 0.0 0.0 0.00 0.14 0.00 94 1010.2
20260506020319 53 176 0.0 0.0 0.00 0.19 0.00 94 1010.8
20260506020315 61 168 0.0 0.0 0.00 0.00 0.00 76 1012.0
20260506020312 57 221 1.0 1.0 0.00 0.10 0.00 91 1010.8
20260506015844 62 143 4.0 9.0 0.00 0.00 0.00 84 1011.4
20260506015837 56 119 2.0 6.0 0.00 0.29 0.00 95 1011.4
20260506015832 52 294 1.0 3.0 0.00 0.35 0.00 88 1007.2
20260506015830 55 203 0.0 1.0 0.00 0.14 0.00 94 1010.2
20260506015828 55 257 0.0 0.0 0.00 2.53 0.00 95 1008.7
20260506015822 53 178 0.0 0.0 0.00 0.19 0.00 95 1010.8
20260506015815 61 167 0.0 0.0 0.00 0.00 0.00 76 1012.1
20260506015812 57 221 0.0 1.0 0.00 0.10 0.00 91 1010.7
20260506015341 61 158 4.0 8.0 0.00 0.00 0.00 84 1011.5
20260506015332 52 294 1.0 2.0 0.00 0.35 0.00 88 1007.2
20260506015330 55 203 0.0 2.0 0.00 0.14 0.00 93 1010.2
20260506015319 53 181 0.0 0.0 0.00 0.19 0.00 95 1010.9
20260506015313 57 221 0.0 1.0 0.00 0.10 0.00 91 1010.9
20260506014844 61 113 5.0 8.0 0.00 0.00 0.00 84 1011.5
20260506014838 52 294 2.0 3.0 0.00 0.35 0.00 88 1007.4
20260506014834 56 98 3.0 6.0 0.00 0.29 0.00 95 1011.3
20260506014822 53 181 0.0 0.0 0.00 0.19 0.00 95 1011.0
20260506014812 61 167 0.0 0.0 0.00 0.00 0.00 75 1012.2
20260506014341 61 172 1.0 7.0 0.00 0.00 0.00 84 1011.6
20260506014337 56 121 2.0 6.0 0.00 0.29 0.00 95 1011.4
20260506014333 55 203 0.0 1.0 0.00 0.14 0.00 94 1010.2
20260506014327 55 255 0.0 3.0 0.00 2.53 0.00 95 1008.8
20260506014322 53 181 0.0 0.0 0.00 0.19 0.00 95 1011.0
20260506014318 61 168 0.0 0.0 0.00 0.00 0.00 75 1012.2
20260506014315 57 221 1.0 2.0 0.00 0.10 0.00 91 1011.3
20260506013841 61 160 2.0 7.0 0.00 0.00 0.00 84 1011.5
20260506013833 55 255 1.0 2.0 0.01 2.53 0.00 95 1008.8
20260506013831 56 109 3.0 4.0 0.00 0.29 0.00 95 1011.5
20260506013822 53 181 0.0 0.0 0.00 0.19 0.00 95 1010.9
20260506013815 61 160 0.0 0.0 0.00 0.00 0.00 75 1012.1
20260506013813 57 221 1.0 4.0 0.00 0.10 0.00 91 1011.4
20260506013348 59 118 0.0 0.0 0.13 2.82 0.00 95 1009.0
20260506013341 62 153 1.0 6.0 0.00 0.00 0.00 84 1011.6
20260506013336 52 294 2.0 3.0 0.00 0.35 0.00 88 1007.3
20260506013331 56 120 3.0 4.0 0.00 0.29 0.00 95 1011.6
20260506013327 55 255 1.0 4.0 0.01 2.53 0.00 95 1008.8
20260506013324 53 181 0.0 0.0 0.00 0.19 0.00 95 1010.9
20260506013321 61 161 0.0 0.0 0.00 0.00 0.00 76 1012.1
20260506013312 57 222 3.0 5.0 0.00 0.10 0.00 91 1011.4
20260506012850 62 154 2.0 7.0 0.00 0.00 0.00 84 1011.7
20260506012834 56 121 2.0 3.0 0.00 0.29 0.00 95 1011.6
20260506012832 52 294 2.0 3.0 0.00 0.35 0.00 88 1007.3
20260506012830 55 203 0.0 0.0 0.00 0.14 0.00 94 1010.5
20260506012827 55 229 2.0 4.0 0.01 2.53 0.00 95 1009.2
20260506012822 53 181 0.0 0.0 0.00 0.19 0.00 95 1010.9
20260506012818 61 160 0.0 0.0 0.00 0.00 0.00 76 1012.2
20260506012815 57 248 2.0 4.0 0.00 0.10 0.00 91 1011.4
20260506012341 62 148 4.0 7.0 0.00 0.00 0.00 84 1011.6
20260506012338 59 249 0.0 2.0 0.00 0.06 0.00 88 1011.9
20260506012335 52 294 1.0 3.0 0.00 0.35 0.00 88 1007.4
20260506012333 55 203 0.0 0.0 0.00 0.14 0.00 93 1010.6
20260506012319 53 181 0.0 0.0 0.00 0.19 0.00 95 1011.0
20260506012312 61 161 0.0 0.0 0.00 0.00 0.00 75 1012.1
20260506011843 59 118 0.0 0.0 0.18 2.84 0.00 95 1009.0
20260506011838 59 249 2.0 3.0 0.00 0.06 0.00 88 1012.0
20260506011833 56 273 0.0 3.0 0.03 2.53 0.00 95 1009.2
20260506011831 56 123 2.0 6.0 0.00 0.29 0.00 95 1011.6
20260506011822 53 181 0.0 0.0 0.00 0.19 0.00 94 1011.1
20260506011819 57 167 3.0 4.0 0.00 0.10 0.00 90 1011.5
20260506011812 61 161 0.0 0.0 0.00 0.00 0.00 75 1012.1
20260506011344 59 249 0.0 1.0 0.00 0.06 0.00 88 1012.0
20260506011341 62 155 5.0 7.0 0.00 0.00 0.00 83 1011.6
20260506011338 52 294 2.0 3.0 0.00 0.35 0.00 88 1007.5
20260506011334 56 117 2.0 6.0 0.00 0.29 0.00 95 1011.8
20260506011330 56 38 0.0 1.0 0.03 2.53 0.00 95 1009.5
20260506011325 53 181 0.0 0.0 0.00 0.19 0.00 94 1010.9
20260506011316 57 196 2.0 3.0 0.00 0.10 0.00 90 1011.5
20260506011312 61 160 0.0 0.0 0.00 0.00 0.00 75 1012.2
20260506010850 62 127 3.0 6.0 0.00 0.00 0.00 84 1011.7
20260506010841 59 0 1.0 2.0 0.00 0.06 0.00 88 1012.0
20260506010834 56 124 2.0 3.0 0.00 0.29 0.00 95 1012.0
20260506010832 52 294 2.0 3.0 0.00 0.35 0.00 88 1007.6
20260506010830 55 203 0.0 0.0 0.00 0.14 0.00 93 1010.9
20260506010827 56 38 0.0 0.0 0.03 2.53 0.00 95 1009.5
20260506010819 53 181 0.0 0.0 0.00 0.19 0.00 94 1010.8
20260506010812 57 211 2.0 4.0 0.00 0.10 0.00 90 1011.6
20260506010343 59 118 0.0 0.0 0.22 2.87 0.00 95 1009.1
20260506010338 59 249 0.0 2.0 0.00 0.06 0.00 88 1012.0
20260506010336 55 203 0.0 0.0 0.00 0.14 0.00 93 1010.8
20260506010332 51 294 1.0 3.0 0.00 0.35 0.00 88 1007.6
20260506010319 53 189 0.0 0.0 0.00 0.19 0.00 95 1010.9
20260506010316 57 171 1.0 5.0 0.00 0.10 0.00 90 1011.4
20260506010312 61 160 0.0 0.0 0.00 0.00 0.00 74 1012.2
20260506005844 62 164 3.0 8.0 0.00 0.00 0.00 84 1011.6
20260506005840 59 249 1.0 3.0 0.00 0.06 0.00 88 1012.1
20260506005833 55 203 0.0 1.0 0.00 0.14 0.00 93 1010.9
20260506005831 56 119 2.0 3.0 0.00 0.29 0.00 95 1012.2
20260506005822 53 189 0.0 0.0 0.00 0.19 0.00 94 1010.9
20260506005812 57 165 5.0 5.0 0.00 0.10 0.00 91 1011.5
20260506005344 59 0 0.0 2.0 0.00 0.06 0.00 88 1012.2
20260506005341 62 148 6.0 9.0 0.00 0.00 0.00 84 1011.6
20260506005333 51 294 2.0 4.0 0.00 0.35 0.00 88 1007.5
20260506005331 56 115 0.0 2.0 0.00 0.29 0.00 95 1012.2
20260506005319 53 189 0.0 0.0 0.00 0.19 0.00 94 1010.9
20260506005315 61 160 0.0 0.0 0.00 0.00 0.00 73 1012.4
20260506005312 57 180 2.0 4.0 0.00 0.10 0.00 91 1011.4
20260506004842 59 249 1.0 3.0 0.00 0.06 0.00 87 1012.2
20260506004835 51 294 3.0 4.0 0.00 0.35 0.00 88 1007.6
20260506004833 55 203 0.0 0.0 0.00 0.14 0.00 93 1010.8
20260506004819 53 188 0.0 0.0 0.00 0.19 0.00 94 1010.9
20260506004813 57 227 3.0 4.0 0.00 0.10 0.00 91 1011.5
20260506004348 62 166 5.0 8.0 0.00 0.00 0.00 84 1011.7
20260506004338 59 249 0.0 1.0 0.00 0.06 0.00 87 1012.1
20260506004332 51 294 2.0 4.0 0.00 0.35 0.00 88 1007.7
20260506004330 55 203 0.0 0.0 0.00 0.14 0.00 93 1010.8
20260506004319 53 188 0.0 0.0 0.00 0.19 0.00 95 1011.0
20260506004312 61 160 0.0 0.0 0.00 0.00 0.00 74 1012.5
20260506003844 62 169 2.0 8.0 0.00 0.00 0.00 84 1011.6
20260506003840 56 115 1.0 1.0 0.00 0.29 0.00 95 1012.2
20260506003838 51 294 3.0 3.0 0.00 0.35 0.00 88 1007.6
20260506003833 55 203 0.0 1.0 0.00 0.14 0.00 93 1010.9
20260506003825 53 189 0.0 0.0 0.00 0.19 0.00 95 1010.9
20260506003818 57 212 3.0 3.0 0.00 0.10 0.00 91 1011.6
20260506003815 61 160 0.0 0.0 0.00 0.00 0.00 74 1012.5
20260506003342 58 118 0.0 0.0 0.21 2.78 0.00 95 1009.6
20260506003340 59 249 0.0 1.0 0.00 0.06 0.00 87 1012.2
20260506003333 55 203 0.0 1.0 0.00 0.14 0.00 93 1010.9
20260506003331 56 115 0.0 2.0 0.00 0.29 0.00 95 1012.2
20260506003319 53 189 0.0 0.0 0.00 0.19 0.00 95 1010.9
20260506003312 57 267 2.0 3.0 0.00 0.10 0.00 90 1011.6
20260506002844 62 158 3.0 8.0 0.00 0.00 0.00 84 1011.6
20260506002839 59 249 0.0 1.0 0.00 0.06 0.00 87 1012.2
20260506002835 51 294 2.0 3.0 0.00 0.35 0.00 88 1007.6
20260506002833 57 29 2.0 4.0 0.04 2.52 0.00 95 1009.7
20260506002830 55 203 0.0 0.0 0.00 0.14 0.00 93 1011.0
20260506002819 53 188 0.0 0.0 0.00 0.19 0.00 94 1011.0
20260506002812 57 268 1.0 2.0 0.00 0.10 0.00 90 1011.5
20260506002343 59 249 0.0 2.0 0.00 0.06 0.00 86 1012.2
20260506002341 62 156 5.0 8.0 0.00 0.00 0.00 84 1011.7
20260506002338 51 294 3.0 4.0 0.00 0.35 0.00 88 1007.6
20260506002333 57 355 1.0 4.0 0.03 2.51 0.00 95 1009.7
20260506002331 56 115 0.0 2.0 0.00 0.29 0.00 95 1012.0
20260506002328 53 188 0.0 1.0 0.00 0.19 0.00 94 1011.0
20260506002318 57 268 0.0 2.0 0.00 0.10 0.00 90 1011.6
20260506002312 60 190 0.0 4.0 0.00 0.00 0.00 74 1012.4
20260506001851 58 118 0.0 0.0 0.34 2.77 0.00 94 1009.7
20260506001841 62 171 4.0 8.0 0.00 0.00 0.00 84 1011.7
20260506001838 60 249 2.0 3.0 0.00 0.06 0.00 85 1012.2
20260506001833 51 294 3.0 3.0 0.00 0.35 0.00 88 1007.9
20260506001831 58 255 2.0 3.0 0.02 2.50 0.00 95 1009.7
20260506001822 53 188 0.0 0.0 0.00 0.19 0.00 94 1011.0
20260506001815 61 173 2.0 4.0 0.00 0.00 0.00 74 1012.4
20260506001344 62 140 5.0 8.0 0.00 0.00 0.00 84 1011.7
20260506001338 51 294 2.0 4.0 0.00 0.35 0.00 88 1007.8
20260506001336 58 215 0.0 2.0 0.02 2.50 0.00 95 1009.7
20260506001333 55 203 0.0 0.0 0.00 0.14 0.00 93 1011.0
20260506001331 56 115 0.0 3.0 0.00 0.29 0.00 95 1012.0
20260506001322 53 188 0.0 0.0 0.00 0.19 0.00 94 1011.0
20260506001318 61 194 3.0 4.0 0.00 0.00 0.00 74 1012.5
20260506000844 62 172 5.0 8.0 0.00 0.00 0.00 84 1011.8
20260506000842 59 250 1.0 4.0 0.00 0.06 0.00 85 1012.4
20260506000837 56 115 2.0 3.0 0.00 0.29 0.00 95 1012.2
20260506000835 51 294 2.0 3.0 0.00 0.35 0.00 88 1008.0
20260506000833 55 203 0.0 0.0 0.00 0.14 0.00 93 1011.0
20260506000828 58 215 1.0 4.0 0.02 2.50 0.00 95 1009.7
20260506000819 53 188 0.0 0.0 0.00 0.19 0.00 94 1011.1
20260506000812 61 197 0.0 0.0 0.00 0.00 0.00 73 1012.6
20260506000349 58 118 0.0 0.0 0.31 2.74 0.00 94 1009.9
20260506000341 62 146 4.0 7.0 0.00 0.00 0.00 84 1011.7
20260506000336 55 203 0.0 0.0 0.00 0.14 0.00 93 1011.0
20260506000334 56 115 1.0 2.0 0.00 0.29 0.00 95 1012.3
20260506000325 53 188 0.0 0.0 0.00 0.19 0.00 94 1011.1
20260506000322 61 187 0.0 0.0 0.00 0.00 0.00 74 1012.6
20260506000318 58 268 2.0 3.0 0.00 0.10 0.00 90 1011.5
20260505235848 62 141 3.0 6.0 0.00 0.00 0.00 84 1011.8
20260505235841 51 294 1.0 3.0 0.00 0.35 0.00 88 1008.1
20260505235838 58 248 1.0 2.0 0.00 0.06 0.00 86 1012.6
20260505235834 56 115 1.0 2.0 0.00 0.29 0.00 95 1012.4
20260505235830 55 203 0.0 3.0 0.00 0.14 0.00 94 1011.0
20260505235827 58 288 2.0 2.0 0.00 2.48 0.00 95 1009.6
20260505235822 53 188 0.0 0.0 0.00 0.19 0.00 94 1011.2
20260505235812 61 187 0.0 0.0 0.00 0.00 0.00 72 1012.7
20260505235344 58 250 1.0 1.0 0.00 0.06 0.00 87 1012.6
20260505235341 62 148 4.0 9.0 0.00 0.00 0.00 84 1011.8
20260505235336 51 294 1.0 3.0 0.00 0.34 0.00 88 1008.1
20260505235334 56 115 0.0 2.0 0.00 0.29 0.00 95 1012.6
20260505235319 53 188 0.0 0.0 0.00 0.19 0.00 94 1011.1
20260505235315 61 165 0.0 3.0 0.00 0.00 0.00 71 1012.8
20260505235312 58 192 2.0 3.0 0.00 0.09 0.00 90 1011.8
20260505234852 58 118 0.0 0.0 0.41 2.77 0.00 94 1009.9
20260505234847 62 138 6.0 7.0 0.00 0.00 0.00 84 1011.9
20260505234841 58 250 0.0 2.0 0.00 0.06 0.00 87 1012.6
20260505234836 55 203 0.0 0.0 0.00 0.14 0.00 93 1011.0
20260505234832 56 115 0.0 2.0 0.00 0.29 0.00 95 1012.6
20260505234828 58 19 1.0 2.0 0.00 2.48 0.00 95 1009.6
20260505234819 53 188 0.0 0.0 0.00 0.19 0.00 94 1011.2
20260505234815 61 138 2.0 3.0 0.00 0.00 0.00 71 1012.9
20260505234812 58 192 2.0 3.0 0.00 0.09 0.00 90 1011.8
20260505234347 62 167 4.0 7.0 0.00 0.00 0.00 84 1011.9
20260505234341 51 294 1.0 3.0 0.00 0.34 0.00 88 1008.1
20260505234338 58 249 2.0 2.0 0.00 0.06 0.00 87 1012.7
20260505234331 55 115 1.0 1.0 0.00 0.29 0.00 95 1012.4
20260505234328 53 188 0.0 1.0 0.00 0.19 0.00 94 1011.2
20260505234315 61 145 2.0 3.0 0.00 0.00 0.00 72 1012.8
20260505234312 58 192 3.0 2.0 0.00 0.09 0.00 90 1011.8
20260505233847 62 169 4.0 9.0 0.00 0.00 0.00 84 1011.9
20260505233832 51 294 2.0 3.0 0.00 0.34 0.00 88 1008.1
20260505233830 56 203 0.0 1.0 0.00 0.14 0.00 93 1011.2
20260505233822 53 188 0.0 2.0 0.00 0.19 0.00 94 1011.1
20260505233815 58 191 0.0 1.0 0.00 0.09 0.00 89 1011.8
20260505233812 62 141 2.0 4.0 0.00 0.00 0.00 72 1012.9
20260505233342 62 170 4.0 9.0 0.00 0.00 0.00 84 1012.0
20260505233340 58 249 0.0 0.0 0.00 0.06 0.00 87 1012.9
20260505233338 51 294 2.0 4.0 0.00 0.34 0.00 88 1008.1
20260505233334 56 115 0.0 2.0 0.00 0.29 0.00 95 1012.5
20260505233330 56 203 0.0 0.0 0.00 0.14 0.00 93 1011.2
20260505233328 58 150 1.0 3.0 0.00 2.48 0.00 95 1009.8
20260505233325 53 138 0.0 0.0 0.00 0.19 0.00 94 1011.2
20260505233312 62 139 3.0 4.0 0.00 0.00 0.00 71 1012.9
20260505232844 62 146 5.0 7.0 0.00 0.00 0.00 84 1012.0
20260505232838 59 248 0.0 2.0 0.00 0.06 0.00 88 1013.0
20260505232834 56 203 0.0 1.0 0.00 0.14 0.00 94 1011.2
20260505232832 50 294 3.0 3.0 0.00 0.34 0.00 88 1008.0
20260505232822 53 131 0.0 0.0 0.00 0.19 0.00 94 1011.3
20260505232815 62 127 4.0 5.0 0.00 0.00 0.00 71 1012.9
20260505232812 58 209 1.0 3.0 0.00 0.09 0.00 90 1011.8
20260505232351 62 174 4.0 9.0 0.00 0.00 0.00 84 1012.1
20260505232341 59 249 1.0 4.0 0.00 0.06 0.00 88 1013.0
20260505232335 51 294 2.0 3.0 0.00 0.34 0.00 88 1008.0
20260505232331 53 131 0.0 0.0 0.00 0.19 0.00 94 1011.3
20260505232321 62 120 5.0 5.0 0.00 0.00 0.00 71 1012.9
20260505232312 58 209 2.0 4.0 0.00 0.09 0.00 90 1011.9
20260505231845 59 118 0.0 0.0 0.14 2.50 0.00 93 1010.0
20260505231841 58 249 3.0 3.0 0.00 0.06 0.00 88 1013.1
20260505231838 51 294 3.0 3.0 0.00 0.34 0.00 88 1008.0
20260505231834 56 82 1.0 3.0 0.00 0.29 0.00 95 1012.7
20260505231830 58 104 2.0 2.0 0.00 2.48 0.00 95 1010.1
20260505231821 53 131 0.0 1.0 0.00 0.19 0.00 94 1011.4
20260505231818 62 128 4.0 5.0 0.00 0.00 0.00 72 1012.9
20260505231813 58 167 0.0 3.0 0.00 0.09 0.00 90 1012.0
20260505231341 59 248 1.0 2.0 0.00 0.06 0.00 88 1013.0
20260505231333 51 294 2.0 4.0 0.00 0.34 0.00 88 1008.0
20260505231331 56 82 0.0 2.0 0.00 0.29 0.00 95 1012.8
20260505231325 53 131 1.0 1.0 0.00 0.19 0.00 94 1011.4
20260505231312 61 121 4.0 4.0 0.00 0.00 0.00 71 1013.0
20260505230847 62 167 1.0 8.0 0.00 0.00 0.00 84 1012.2
20260505230840 59 249 0.0 1.0 0.00 0.06 0.00 88 1012.9
20260505230837 55 82 0.0 1.0 0.00 0.29 0.00 95 1012.8
20260505230832 51 294 3.0 3.0 0.00 0.34 0.00 88 1008.1
20260505230819 53 131 0.0 0.0 0.00 0.19 0.00 94 1011.5
20260505230815 61 102 0.0 4.0 0.00 0.00 0.00 70 1013.0
20260505230812 58 166 1.0 3.0 0.00 0.09 0.00 89 1012.0
20260505230345 61 118 0.0 0.0 0.13 2.48 0.00 94 1010.2
20260505230341 62 159 4.0 8.0 0.00 0.00 0.00 84 1012.2
20260505230338 59 249 0.0 1.0 0.00 0.06 0.00 88 1012.9
20260505230335 51 294 2.0 4.0 0.00 0.34 0.00 88 1008.1
20260505230330 56 203 0.0 0.0 0.00 0.14 0.00 94 1011.2
20260505230327 58 90 1.0 2.0 0.03 2.48 0.00 95 1010.2
20260505230325 53 131 0.0 0.0 0.00 0.19 0.00 94 1011.6
20260505230318 58 161 0.0 4.0 0.00 0.09 0.00 90 1012.1
20260505230315 61 96 0.0 0.0 0.00 0.00 0.00 70 1013.0
20260505225842 62 161 2.0 6.0 0.00 0.00 0.00 84 1012.3
20260505225838 59 250 0.0 1.0 0.00 0.06 0.00 88 1013.0
20260505225836 56 203 0.0 0.0 0.00 0.14 0.00 94 1011.3
20260505225831 58 126 2.0 4.0 0.03 2.48 0.00 95 1010.2
20260505225819 54 130 0.0 0.0 0.00 0.19 0.00 94 1011.5
20260505225812 58 215 0.0 3.0 0.00 0.09 0.00 90 1012.1
20260505225344 62 123 2.0 7.0 0.00 0.00 0.00 84 1012.2
20260505225338 59 249 0.0 0.0 0.00 0.06 0.00 88 1013.0
20260505225336 56 203 0.0 0.0 0.00 0.14 0.00 94 1011.3
20260505225334 55 81 0.0 1.0 0.00 0.29 0.00 95 1012.8
20260505225332 51 295 2.0 4.0 0.00 0.34 0.00 88 1008.3
20260505225328 58 66 1.0 5.0 0.03 2.48 0.00 95 1010.2
20260505225321 58 187 2.0 4.0 0.00 0.09 0.00 90 1012.0
20260505225316 61 92 0.0 0.0 0.00 0.00 0.00 72 1013.1
20260505224845 62 118 0.0 0.0 0.02 2.37 0.00 94 1010.7
20260505224838 51 294 2.0 3.0 0.00 0.34 0.00 88 1008.3
20260505224833 56 203 0.0 0.0 0.00 0.14 0.00 94 1011.3
20260505224831 59 133 3.0 4.0 0.04 2.48 0.00 95 1010.2
20260505224819 61 89 0.0 0.0 0.00 0.00 0.00 72 1013.1
20260505224812 58 184 2.0 4.0 0.00 0.09 0.00 90 1012.0
20260505224341 62 154 3.0 7.0 0.00 0.00 0.00 83 1012.3
20260505224337 55 81 0.0 1.0 0.00 0.29 0.00 94 1012.8
20260505224335 51 295 3.0 3.0 0.00 0.34 0.00 88 1008.3
20260505224330 56 203 0.0 0.0 0.00 0.14 0.00 94 1011.3
20260505224328 58 228 0.0 3.0 0.04 2.48 0.00 95 1010.1
20260505224322 54 130 0.0 0.0 0.00 0.19 0.00 94 1011.6
20260505224312 58 192 0.0 3.0 0.00 0.09 0.00 90 1012.0
20260505223841 62 192 2.0 6.0 0.00 0.00 0.00 83 1012.4
20260505223834 55 81 0.0 2.0 0.00 0.29 0.00 94 1012.8
20260505223830 56 203 0.0 0.0 0.00 0.14 0.00 94 1011.4
20260505223828 59 269 0.0 3.0 0.04 2.48 0.00 95 1010.1
20260505223819 53 130 0.0 0.0 0.00 0.19 0.00 94 1011.7
20260505223812 61 120 0.0 0.0 0.00 0.00 0.00 71 1013.3
20260505223345 62 91 0.0 0.0 0.00 2.35 0.00 94 1010.3
20260505223341 62 200 4.0 9.0 0.00 0.00 0.00 83 1012.5
20260505223338 59 250 0.0 0.0 0.00 0.06 0.00 88 1013.2
20260505223334 58 26 1.0 2.0 0.04 2.48 0.00 95 1010.1
20260505223330 56 203 0.0 0.0 0.00 0.14 0.00 94 1011.5
20260505223319 53 130 0.0 0.0 0.00 0.19 0.00 94 1011.7
20260505223313 61 132 0.0 3.0 0.00 0.00 0.00 71 1013.3
20260505222844 62 193 2.0 7.0 0.00 0.00 0.00 83 1012.4
20260505222838 59 250 0.0 1.0 0.00 0.06 0.00 88 1013.3
20260505222834 56 81 0.0 2.0 0.00 0.29 0.00 94 1012.7
20260505222832 51 295 2.0 4.0 0.00 0.34 0.00 88 1008.4
20260505222830 56 203 0.0 2.0 0.00 0.14 0.00 94 1011.6
20260505222828 58 24 2.0 3.0 0.04 2.48 0.00 95 1010.1
20260505222819 53 130 0.0 0.0 0.00 0.19 0.00 94 1011.7
20260505222816 61 121 3.0 4.0 0.00 0.00 0.00 72 1013.4
20260505222812 57 192 3.0 3.0 0.00 0.09 0.00 89 1012.1
20260505222344 62 167 3.0 10.0 0.00 0.00 0.00 83 1012.5
20260505222338 59 248 0.0 1.0 0.00 0.06 0.00 88 1013.3
20260505222333 56 203 1.0 2.0 0.00 0.14 0.00 94 1011.6
20260505222331 56 81 1.0 2.0 0.00 0.29 0.00 94 1012.7
20260505222328 58 245 0.0 5.0 0.04 2.48 0.00 95 1010.1
20260505222322 53 130 0.0 0.0 0.00 0.19 0.00 94 1011.6
20260505222316 61 133 3.0 4.0 0.00 0.00 0.00 74 1013.4
20260505221853 62 91 0.0 0.0 0.00 2.35 0.00 94 1010.4
20260505221841 62 192 6.0 8.0 0.00 0.00 0.00 83 1012.6
20260505221838 59 248 0.0 2.0 0.00 0.06 0.00 88 1013.3
20260505221836 51 295 4.0 4.0 0.00 0.34 0.00 88 1008.5
20260505221830 56 203 0.0 0.0 0.00 0.14 0.00 94 1011.5
20260505221825 53 121 0.0 0.0 0.00 0.19 0.00 94 1011.7
20260505221813 60 117 0.0 0.0 0.00 0.00 0.00 75 1013.4
20260505221347 62 211 4.0 10.0 0.00 0.00 0.00 83 1012.7
20260505221345 59 250 2.0 5.0 0.00 0.06 0.00 88 1013.3
20260505221336 51 296 2.0 3.0 0.00 0.34 0.00 88 1008.5
20260505221334 56 75 3.0 4.0 0.00 0.29 0.00 94 1012.7
20260505221331 58 234 1.0 2.0 0.04 2.48 0.00 95 1010.1
20260505221322 53 121 0.0 0.0 0.00 0.19 0.00 94 1011.7
20260505221318 57 194 0.0 2.0 0.00 0.09 0.00 89 1012.2
20260505221313 60 120 0.0 0.0 0.00 0.00 0.00 76 1013.5
20260505220845 62 189 6.0 9.0 0.00 0.00 0.00 83 1012.8
20260505220841 59 248 5.0 4.0 0.00 0.06 0.00 88 1013.4
20260505220836 51 296 1.0 4.0 0.00 0.34 0.00 88 1008.5
20260505220831 56 70 3.0 4.0 0.00 0.29 0.00 94 1012.6
20260505220828 58 234 2.0 3.0 0.04 2.46 0.00 95 1010.1
20260505220820 53 121 0.0 0.0 0.00 0.19 0.00 94 1011.7
20260505220816 59 155 0.0 0.0 0.00 0.00 0.00 78 1013.5
20260505220812 58 194 0.0 1.0 0.00 0.09 0.00 89 1012.1
20260505220401 59 249 1.0 3.0 0.00 0.06 0.00 87 1013.4
20260505220344 62 202 4.0 9.0 0.00 0.00 0.00 83 1012.7
20260505220342 62 91 0.0 0.0 0.00 2.35 0.00 94 1010.5
20260505220333 51 296 4.0 4.0 0.00 0.34 0.00 88 1008.4
20260505220331 56 68 2.0 3.0 0.00 0.29 0.00 94 1012.8
20260505220328 58 252 0.0 3.0 0.15 2.45 0.00 94 1010.1
20260505220322 53 121 0.0 0.0 0.00 0.19 0.00 94 1011.7
20260505220316 59 155 0.0 0.0 0.00 0.00 0.00 78 1013.5
20260505220312 57 194 0.0 1.0 0.00 0.09 0.00 90 1012.1
20260505215844 62 186 5.0 8.0 0.00 0.00 0.00 82 1012.7
20260505215841 60 249 2.0 4.0 0.00 0.06 0.00 87 1013.2
20260505215835 58 249 2.0 4.0 0.22 2.45 0.00 94 1010.3
20260505215833 51 296 2.0 4.0 0.00 0.34 0.00 88 1008.5
20260505215831 56 67 1.0 2.0 0.00 0.29 0.00 94 1012.8
20260505215819 53 121 0.0 0.0 0.00 0.19 0.00 94 1011.6
20260505215813 57 194 1.0 3.0 0.00 0.09 0.00 89 1012.2
20260505215344 62 217 3.0 11.0 0.00 0.00 0.00 82 1012.8
20260505215342 60 249 3.0 5.0 0.00 0.06 0.00 87 1013.4
20260505215336 51 296 3.0 3.0 0.00 0.34 0.00 88 1008.5
20260505215334 58 251 3.0 4.0 0.27 2.45 0.00 94 1010.3
20260505215331 56 66 1.0 2.0 0.00 0.29 0.00 94 1012.8
20260505215328 53 121 0.0 0.0 0.00 0.19 0.00 94 1011.6
20260505215313 59 155 0.0 0.0 0.00 0.00 0.00 78 1013.5
20260505214846 60 249 4.0 5.0 0.00 0.06 0.00 87 1013.5
20260505214842 62 91 0.0 0.0 0.00 2.35 0.00 94 1010.6
20260505214834 56 66 1.0 3.0 0.00 0.29 0.00 94 1013.0
20260505214830 56 203 0.0 0.0 0.00 0.14 0.00 94 1011.6
20260505214828 58 247 0.0 2.0 0.38 2.44 0.00 95 1010.3
20260505214822 53 121 0.0 0.0 0.00 0.19 0.00 94 1011.7
20260505214816 60 155 0.0 0.0 0.00 0.00 0.00 77 1013.5
20260505214812 57 111 2.0 2.0 0.00 0.09 0.00 89 1012.2
20260505214347 63 191 2.0 8.0 0.00 0.00 0.00 82 1012.7
20260505214341 60 249 4.0 4.0 0.00 0.06 0.00 86 1013.5
20260505214339 51 297 3.0 3.0 0.00 0.34 0.00 88 1008.6
20260505214333 56 203 0.0 0.0 0.00 0.14 0.00 94 1011.7
20260505214331 58 246 0.0 3.0 0.58 2.44 0.00 94 1010.8
20260505214322 53 139 0.0 0.0 0.00 0.19 0.00 94 1011.7
20260505214315 57 111 0.0 2.0 0.00 0.09 0.00 89 1012.2
20260505214313 60 154 0.0 0.0 0.00 0.00 0.00 77 1013.5
20260505213842 63 190 3.0 9.0 0.00 0.00 0.00 82 1012.8
20260505213838 60 249 3.0 3.0 0.00 0.06 0.00 86 1013.6
20260505213836 55 203 0.0 0.0 0.00 0.14 0.00 94 1011.7
20260505213831 56 66 0.0 2.0 0.00 0.29 0.00 94 1013.1
20260505213828 58 252 0.0 2.0 0.71 2.44 0.00 94 1010.8
20260505213819 53 146 0.0 0.0 0.00 0.19 0.00 94 1011.7
20260505213813 60 141 0.0 0.0 0.00 0.00 0.00 77 1013.5
20260505213342 62 91 0.0 0.0 0.00 2.35 0.00 94 1010.9
20260505213340 60 249 1.0 3.0 0.00 0.06 0.00 85 1013.7
20260505213337 56 66 2.0 3.0 0.00 0.29 0.00 94 1013.2
20260505213333 51 297 2.0 3.0 0.00 0.34 0.00 88 1008.7
20260505213331 58 247 0.0 3.0 0.78 2.44 0.00 94 1010.8
20260505213322 53 148 0.0 0.0 0.00 0.19 0.00 94 1011.8
20260505213313 60 141 0.0 0.0 0.00 0.00 0.00 76 1013.6
20260505212850 63 197 7.0 8.0 0.00 0.00 0.00 81 1012.8
20260505212844 60 249 0.0 2.0 0.00 0.06 0.00 85 1013.8
20260505212836 55 203 0.0 0.0 0.00 0.14 0.00 93 1011.8
20260505212833 51 297 2.0 3.0 0.00 0.34 0.00 88 1008.7
20260505212831 56 67 2.0 4.0 0.00 0.29 0.00 94 1013.1
20260505212828 58 286 2.0 3.0 0.86 2.44 0.00 94 1010.8
20260505212820 53 149 0.0 0.0 0.00 0.19 0.00 94 1011.9
20260505212818 57 83 0.0 3.0 0.00 0.09 0.00 89 1012.3
20260505212813 60 86 0.0 0.0 0.00 0.00 0.00 77 1013.6
20260505212344 63 178 4.0 9.0 0.00 0.00 0.00 81 1012.8
20260505212338 60 249 0.0 2.0 0.00 0.06 0.00 85 1013.8
20260505212335 59 67 1.0 4.0 0.90 2.44 0.00 94 1010.8
20260505212333 51 297 3.0 3.0 0.00 0.34 0.00 88 1008.8
20260505212330 55 203 0.0 0.0 0.00 0.14 0.00 93 1011.8
20260505212322 54 149 0.0 0.0 0.00 0.19 0.00 94 1011.8
20260505212318 57 83 3.0 4.0 0.00 0.09 0.00 89 1012.4
20260505212313 60 75 0.0 0.0 0.00 0.00 0.00 78 1013.7
20260505211850 63 214 5.0 9.0 0.00 0.00 0.00 81 1012.8
20260505211847 63 120 0.0 0.0 0.00 2.34 0.00 94 1011.0
20260505211844 60 249 1.0 3.0 0.00 0.06 0.00 84 1013.7
20260505211839 51 297 3.0 3.0 0.00 0.34 0.00 88 1008.8
20260505211834 56 83 1.0 3.0 0.00 0.29 0.00 94 1013.2
20260505211830 56 203 0.0 0.0 0.00 0.14 0.00 93 1011.8
20260505211828 59 242 1.0 3.0 0.93 2.44 0.00 94 1010.8
20260505211819 54 149 0.0 0.0 0.00 0.19 0.00 93 1011.8
20260505211813 60 51 0.0 0.0 0.00 0.00 0.00 81 1013.7
20260505211341 63 205 4.0 8.0 0.00 0.00 0.00 81 1012.8
20260505211339 51 297 2.0 3.0 0.00 0.34 0.00 88 1008.8
20260505211333 56 203 0.0 0.0 0.00 0.14 0.00 93 1011.8
20260505211331 56 84 3.0 5.0 0.00 0.29 0.00 94 1013.4
20260505211328 59 234 3.0 6.0 0.96 2.44 0.00 94 1010.9
20260505211319 54 148 0.0 0.0 0.00 0.19 0.00 93 1011.8
20260505211316 60 25 0.0 0.0 0.00 0.00 0.00 82 1013.7
20260505210841 59 249 0.0 1.0 0.00 0.06 0.00 82 1013.8
20260505210834 56 67 1.0 5.0 0.00 0.29 0.00 93 1013.4
20260505210831 59 36 5.0 7.0 0.94 2.42 0.00 95 1010.9
20260505210822 54 148 0.0 0.0 0.00 0.19 0.00 93 1011.8
20260505210813 59 11 0.0 0.0 0.00 0.00 0.00 82 1013.8
20260505210347 63 119 0.0 0.0 0.00 2.34 0.00 94 1011.0
20260505210341 63 193 2.0 9.0 0.00 0.00 0.00 80 1012.8
20260505210338 59 249 1.0 1.0 0.00 0.06 0.00 82 1013.7
20260505210330 56 203 0.0 0.0 0.00 0.14 0.00 93 1011.9
20260505210319 54 148 0.0 0.0 0.00 0.19 0.00 93 1011.9
20260505210316 59 11 0.0 0.0 0.00 0.00 0.00 83 1013.8
20260505210312 58 206 0.0 2.0 0.00 0.09 0.00 88 1012.5
20260505205843 51 297 2.0 3.0 0.00 0.34 0.00 88 1008.9
20260505205841 59 249 0.0 1.0 0.00 0.06 0.00 82 1013.7
20260505205834 57 86 3.0 4.0 0.00 0.29 0.00 93 1013.4
20260505205830 56 203 0.0 0.0 0.00 0.14 0.00 93 1011.8
20260505205819 54 148 0.0 0.0 0.00 0.19 0.00 93 1012.0
20260505205813 59 328 0.0 0.0 0.00 0.00 0.00 84 1013.7
20260505205344 63 205 8.0 8.0 0.00 0.00 0.00 80 1013.0
20260505205338 59 249 0.0 0.0 0.00 0.06 0.00 81 1013.7
20260505205334 57 105 2.0 6.0 0.00 0.29 0.00 93 1013.4
20260505205328 59 40 1.0 3.0 0.70 2.18 0.00 94 1010.8
20260505205319 54 148 0.0 0.0 0.00 0.19 0.00 93 1012.0
20260505205313 59 330 0.0 0.0 0.00 0.00 0.00 84 1013.7
20260505204842 63 119 0.0 0.0 0.00 2.34 0.00 94 1011.1
20260505204838 60 249 0.0 2.0 0.00 0.06 0.00 81 1013.7
20260505204835 59 284 2.0 4.0 0.58 2.06 0.00 94 1010.8
20260505204833 50 297 2.0 3.0 0.00 0.34 0.00 88 1008.9
20260505204831 57 105 2.0 8.0 0.00 0.29 0.00 93 1013.3
20260505204823 54 148 0.0 0.0 0.00 0.19 0.00 93 1011.9
20260505204816 59 335 0.0 4.0 0.00 0.00 0.00 83 1013.6
20260505204350 63 193 5.0 7.0 0.00 0.00 0.00 79 1012.9
20260505204344 60 249 1.0 2.0 0.00 0.06 0.00 81 1013.7
20260505204339 56 203 0.0 0.0 0.00 0.14 0.00 93 1011.9
20260505204334 57 83 2.0 5.0 0.00 0.29 0.00 93 1013.3
20260505204328 54 149 0.0 0.0 0.00 0.19 0.00 93 1012.0
20260505204319 59 322 3.0 4.0 0.00 0.00 0.00 84 1013.6
20260505203841 60 249 0.0 2.0 0.00 0.06 0.00 80 1013.8
20260505203834 57 96 2.0 4.0 0.00 0.29 0.00 93 1013.4
20260505203830 56 203 0.0 0.0 0.00 0.14 0.00 93 1011.8
20260505203819 54 149 0.0 0.0 0.00 0.19 0.00 93 1012.0
20260505203813 58 6 0.0 0.0 0.00 0.00 0.00 84 1013.7
20260505203342 63 119 0.0 0.0 0.00 2.34 0.00 93 1011.2
20260505203334 50 298 2.0 3.0 0.00 0.34 0.00 88 1008.8
20260505203331 57 110 2.0 6.0 0.00 0.29 0.00 93 1013.3
20260505203322 54 149 0.0 0.0 0.00 0.19 0.00 93 1012.0
20260505203313 58 332 0.0 4.0 0.00 0.00 0.00 84 1013.9
20260505202843 60 249 2.0 2.0 0.00 0.06 0.00 78 1013.7
20260505202837 57 61 3.0 7.0 0.00 0.29 0.00 92 1013.3
20260505202830 56 203 0.0 0.0 0.00 0.14 0.00 93 1011.8
20260505202828 59 59 1.0 1.0 0.16 1.58 0.00 94 1010.4
20260505202822 54 149 0.0 0.0 0.00 0.19 0.00 93 1012.0
20260505202819 58 18 0.0 1.0 0.00 0.00 0.00 84 1014.0
20260505202812 58 142 1.0 1.0 0.00 0.09 0.00 87 1012.4
20260505202341 63 179 7.0 10.0 0.00 0.00 0.00 78 1012.9
20260505202338 60 249 0.0 5.0 0.00 0.06 0.00 79 1013.7
20260505202334 50 298 2.0 3.0 0.00 0.34 0.00 88 1008.7
20260505202331 59 59 0.0 3.0 0.13 1.54 0.00 94 1010.4
20260505202325 54 149 0.0 0.0 0.00 0.19 0.00 93 1012.0
20260505202319 58 333 0.0 0.0 0.00 0.00 0.00 83 1014.0
20260505202312 58 142 0.0 2.0 0.00 0.09 0.00 87 1012.6
20260505201842 63 119 0.0 0.0 0.00 2.34 0.00 93 1011.3
20260505201839 50 298 2.0 3.0 0.00 0.34 0.00 88 1008.7
20260505201831 58 75 7.0 7.0 0.00 0.29 0.00 92 1013.3
20260505201828 59 59 1.0 2.0 0.11 1.51 0.00 94 1010.4
20260505201820 54 149 0.0 0.0 0.00 0.19 0.00 93 1012.2
20260505201815 58 142 1.0 2.0 0.00 0.09 0.00 87 1012.6
20260505201813 59 306 0.0 1.0 0.00 0.00 0.00 82 1013.9
20260505201344 63 231 2.0 9.0 0.00 0.00 0.00 77 1013.0
20260505201339 60 249 3.0 5.0 0.00 0.06 0.00 81 1013.8
20260505201334 58 107 6.0 8.0 0.00 0.29 0.00 92 1013.2
20260505201313 59 351 0.0 1.0 0.00 0.00 0.00 82 1013.9
20260505200844 60 249 3.0 4.0 0.00 0.06 0.00 82 1013.8
20260505200840 58 117 2.0 6.0 0.00 0.29 0.00 92 1013.2
20260505200836 50 300 2.0 3.0 0.00 0.34 0.00 87 1008.8
20260505200819 59 36 0.0 0.0 0.00 0.00 0.00 82 1014.0
20260505200812 58 142 1.0 2.0 0.00 0.09 0.00 87 1012.6
20260505200345 64 119 0.0 1.0 0.00 2.34 0.00 93 1011.2
20260505200341 60 249 3.0 3.0 0.00 0.06 0.00 82 1013.9
20260505200339 51 321 1.0 2.0 0.00 0.34 0.00 87 1008.7
20260505200337 58 87 3.0 4.0 0.00 0.29 0.00 92 1013.3
20260505200333 57 203 1.0 2.0 0.00 0.14 0.00 93 1011.8
20260505200321 58 142 2.0 3.0 0.00 0.09 0.00 87 1012.7
20260505200319 54 149 0.0 0.0 0.00 0.19 0.00 93 1012.0
20260505200313 59 29 0.0 0.0 0.00 0.00 0.00 83 1014.0
20260505195842 64 194 3.0 9.0 0.00 0.00 0.00 75 1013.1
20260505195839 59 133 2.0 3.0 0.08 1.48 0.00 94 1010.1
20260505195833 51 321 1.0 1.0 0.00 0.34 0.00 87 1008.7
20260505195831 58 74 2.0 5.0 0.00 0.29 0.00 91 1013.2
20260505195819 58 43 0.0 0.0 0.00 0.00 0.00 83 1013.9
20260505195815 58 142 3.0 3.0 0.00 0.09 0.00 87 1012.6
20260505195341 61 249 3.0 9.0 0.00 0.06 0.00 79 1013.9
20260505195339 57 203 1.0 2.0 0.00 0.14 0.00 93 1011.8
20260505195337 51 321 0.0 3.0 0.00 0.34 0.00 87 1008.7
20260505195331 59 89 3.0 6.0 0.00 0.29 0.00 91 1013.2
20260505195325 54 149 0.0 0.0 0.00 0.19 0.00 93 1011.9
20260505195322 58 30 0.0 0.0 0.00 0.00 0.00 83 1013.8
20260505195315 58 142 0.0 0.0 0.00 0.09 0.00 87 1012.4
20260505194845 64 201 2.0 8.0 0.00 0.00 0.00 74 1012.9
20260505194842 64 175 0.0 0.0 0.06 2.34 0.00 93 1011.2
20260505194838 60 261 6.0 9.0 0.00 0.06 0.00 79 1013.9
20260505194833 57 203 0.0 1.0 0.00 0.14 0.00 92 1011.8
20260505194831 59 59 5.0 5.0 0.00 0.29 0.00 91 1013.3
20260505194819 54 149 0.0 2.0 0.00 0.19 0.00 93 1011.8
20260505194815 58 195 0.0 0.0 0.00 0.09 0.00 87 1012.4
20260505194813 58 141 0.0 0.0 0.00 0.00 0.00 84 1013.8
20260505194344 60 263 7.0 8.0 0.00 0.06 0.00 79 1013.8
20260505194341 64 207 5.0 6.0 0.00 0.00 0.00 73 1012.9
20260505194336 51 325 3.0 5.0 0.00 0.34 0.00 87 1008.7
20260505194331 59 76 2.0 5.0 0.00 0.29 0.00 91 1013.1
20260505194325 54 149 1.0 2.0 0.00 0.19 0.00 93 1012.0
20260505194316 58 141 0.0 0.0 0.00 0.00 0.00 84 1013.9
20260505193848 64 174 4.0 8.0 0.00 0.00 0.00 73 1012.9
20260505193838 60 176 2.0 3.0 0.00 0.06 0.00 82 1013.7
20260505193833 52 319 3.0 5.0 0.00 0.34 0.00 87 1008.8
20260505193831 59 71 2.0 6.0 0.00 0.29 0.00 91 1013.0
20260505193824 54 150 0.0 1.0 0.00 0.19 0.00 93 1012.0
20260505193819 58 141 0.0 0.0 0.00 0.00 0.00 84 1013.8
20260505193344 59 177 1.0 5.0 0.00 0.06 0.00 83 1013.6
20260505193342 64 151 0.0 0.0 0.07 2.34 0.00 92 1011.1
20260505193334 59 57 5.0 8.0 0.00 0.29 0.00 90 1013.1
20260505193330 57 203 0.0 1.0 0.00 0.14 0.00 92 1011.8
20260505193319 54 150 0.0 2.0 0.00 0.19 0.00 93 1012.0
20260505193313 58 141 0.0 0.0 0.00 0.00 0.00 83 1013.7
20260505192843 59 109 1.0 5.0 0.00 0.29 0.00 90 1013.1
20260505192838 59 152 3.0 3.0 0.00 0.06 0.00 84 1013.6
20260505192836 57 203 0.0 1.0 0.00 0.14 0.00 92 1011.8
20260505192833 52 329 2.0 4.0 0.00 0.34 0.00 87 1008.8
20260505192822 54 150 0.0 0.0 0.00 0.19 0.00 92 1012.0
20260505192813 59 141 0.0 0.0 0.00 0.00 0.00 83 1013.6
20260505192344 64 193 4.0 8.0 0.00 0.00 0.00 71 1012.8
20260505192339 59 107 0.0 0.0 0.00 0.06 0.00 84 1013.5
20260505192336 52 325 1.0 4.0 0.00 0.34 0.00 87 1008.8
20260505192334 59 57 0.0 4.0 0.00 0.29 0.00 90 1012.9
20260505192331 59 197 0.0 2.0 0.02 1.41 0.00 93 1009.9
20260505192319 54 150 0.0 0.0 0.00 0.19 0.00 92 1011.8
20260505192312 58 195 0.0 1.0 0.00 0.09 0.00 88 1012.3
20260505191842 64 279 0.0 0.0 0.07 2.34 0.00 92 1011.0
20260505191834 52 0 1.0 4.0 0.00 0.34 0.00 87 1008.8
20260505191831 59 55 1.0 4.0 0.00 0.29 0.00 90 1012.9
20260505191828 59 197 0.0 1.0 0.01 1.40 0.00 93 1009.9
20260505191823 54 150 0.0 0.0 0.01 0.19 0.00 93 1011.9
20260505191813 59 141 0.0 0.0 0.00 0.00 0.00 82 1013.7
20260505191345 64 207 3.0 8.0 0.00 0.00 0.00 70 1012.7
20260505191343 52 321 2.0 3.0 0.00 0.34 0.00 87 1008.8
20260505191339 58 203 0.0 0.0 0.00 0.14 0.00 92 1011.7
20260505191335 59 198 1.0 1.0 0.00 1.39 0.00 93 1009.7
20260505191331 60 60 1.0 4.0 0.00 0.29 0.00 89 1012.9
20260505191322 54 150 0.0 0.0 0.02 0.19 0.00 93 1011.8
20260505191319 59 16 0.0 0.0 0.00 0.00 0.00 81 1013.6
20260505191315 58 195 1.0 2.0 0.00 0.09 0.00 88 1012.2
20260505190843 51 320 0.0 3.0 0.00 0.34 0.00 87 1008.7
20260505190841 65 195 4.0 7.0 0.00 0.00 0.00 70 1012.8
20260505190838 60 107 0.0 0.0 0.00 0.06 0.00 83 1013.5
20260505190834 60 59 2.0 5.0 0.00 0.29 0.00 89 1012.7
20260505190831 59 198 0.0 2.0 0.00 1.39 0.00 92 1009.7
20260505190826 54 150 0.0 1.0 0.02 0.19 0.00 93 1011.8
20260505190818 58 195 0.0 2.0 0.00 0.09 0.00 88 1012.2
20260505190813 59 344 0.0 0.0 0.00 0.00 0.00 81 1013.5
20260505190347 60 107 0.0 0.0 0.00 0.06 0.00 83 1013.5
20260505190345 65 202 0.0 0.0 0.07 2.34 0.00 90 1010.8
20260505190334 60 198 1.0 2.0 0.00 1.39 0.00 92 1009.7
20260505190331 60 75 2.0 4.0 0.00 0.29 0.00 89 1012.7
20260505190319 54 150 0.0 1.0 0.02 0.19 0.00 93 1011.8
20260505190315 58 195 1.0 2.0 0.00 0.09 0.00 88 1012.2
20260505190313 59 312 0.0 4.0 0.00 0.00 0.00 80 1013.3
20260505185847 60 107 0.0 3.0 0.00 0.06 0.00 82 1013.5
20260505185844 65 204 2.0 7.0 0.00 0.00 0.00 69 1012.8
20260505185834 60 77 0.0 5.0 0.00 0.29 0.00 89 1012.7
20260505185831 60 161 1.0 2.0 0.00 1.39 0.00 92 1009.7
20260505185822 54 150 0.0 1.0 0.02 0.19 0.00 93 1011.8
20260505185815 58 195 1.0 2.0 0.00 0.09 0.00 88 1012.2
20260505185813 59 320 0.0 3.0 0.00 0.00 0.00 81 1013.2
20260505185341 65 186 5.0 7.0 0.00 0.00 0.00 69 1012.8
20260505185338 60 107 0.0 2.0 0.00 0.06 0.00 82 1013.5
20260505185334 51 268 2.0 3.0 0.00 0.34 0.00 87 1008.6
20260505185331 60 65 3.0 5.0 0.00 0.29 0.00 89 1012.7
20260505185325 54 150 0.0 0.0 0.02 0.19 0.00 93 1011.7
20260505185313 59 328 0.0 2.0 0.00 0.00 0.00 81 1013.1
20260505184842 65 270 0.0 0.0 0.00 2.28 0.00 89 1010.8
20260505184838 60 107 1.0 6.0 0.00 0.06 0.00 81 1013.3
20260505184836 58 203 0.0 0.0 0.00 0.14 0.00 92 1011.6
20260505184834 60 161 0.0 1.0 0.03 1.39 0.00 92 1009.7
20260505184822 54 150 0.0 0.0 0.03 0.19 0.00 93 1011.7
20260505184813 59 312 0.0 0.0 0.00 0.00 0.00 81 1013.2
20260505184347 60 107 2.0 2.0 0.00 0.06 0.00 81 1013.3
20260505184342 51 324 2.0 5.0 0.00 0.34 0.00 87 1008.6
20260505184334 61 63 1.0 7.0 0.00 0.29 0.00 88 1012.6
20260505184331 60 161 0.0 1.0 0.04 1.39 0.00 92 1009.6
20260505184319 54 150 0.0 1.0 0.03 0.19 0.00 93 1011.7
20260505184313 59 8 0.0 0.0 0.00 0.00 0.00 81 1013.2
20260505183844 60 107 1.0 2.0 0.00 0.06 0.00 81 1013.2
20260505183841 65 186 5.0 7.0 0.00 0.00 0.00 69 1012.5
20260505183834 61 88 2.0 9.0 0.00 0.29 0.00 88 1012.6
20260505183832 60 161 1.0 2.0 0.04 1.39 0.00 92 1009.6
20260505183830 58 203 0.0 0.0 0.00 0.14 0.00 92 1011.6
20260505183824 54 149 0.0 1.0 0.03 0.19 0.00 92 1011.6
20260505183819 59 30 0.0 3.0 0.00 0.00 0.00 81 1013.3
20260505183347 59 107 0.0 2.0 0.00 0.06 0.00 81 1013.3
20260505183345 65 317 0.0 0.0 0.00 2.27 0.00 88 1010.8
20260505183342 65 204 3.0 9.0 0.00 0.00 0.00 70 1012.4
20260505183337 60 162 0.0 1.0 0.04 1.39 0.00 92 1009.6
20260505183331 61 68 0.0 5.0 0.00 0.29 0.00 87 1012.6
20260505183326 59 53 2.0 5.0 0.00 0.00 0.00 82 1013.2
20260505183323 55 149 1.0 2.0 0.03 0.19 0.00 92 1011.6
20260505183312 58 182 4.0 5.0 0.00 0.09 0.00 88 1012.0
20260505182841 59 107 1.0 4.0 0.00 0.06 0.00 82 1013.3
20260505182837 61 64 3.0 5.0 0.00 0.29 0.00 87 1012.6
20260505182834 60 161 0.0 1.0 0.04 1.39 0.00 92 1009.3
20260505182830 58 203 0.0 0.0 0.00 0.14 0.00 92 1011.4
20260505182821 58 201 3.0 4.0 0.00 0.09 0.00 88 1011.8
20260505182819 55 159 1.0 4.0 0.02 0.18 0.00 92 1011.5
20260505182815 59 36 4.0 5.0 0.00 0.00 0.00 81 1013.2
20260505182342 65 191 7.0 10.0 0.00 0.00 0.00 71 1012.4
20260505182339 52 323 2.0 3.0 0.00 0.34 0.00 88 1008.4
20260505182334 62 83 0.0 4.0 0.00 0.29 0.00 87 1012.6
20260505182328 60 162 0.0 0.0 0.07 1.39 0.00 92 1009.3
20260505182319 55 159 2.0 4.0 0.02 0.18 0.00 92 1011.5
20260505182317 59 25 4.0 5.0 0.00 0.00 0.00 81 1013.2
20260505182312 58 189 3.0 4.0 0.01 0.09 0.00 88 1011.8
20260505181847 66 201 7.0 9.0 0.00 0.00 0.00 71 1012.4
20260505181843 65 317 0.0 0.0 0.00 2.27 0.00 87 1010.8
20260505181840 60 67 0.0 6.0 0.00 0.06 0.00 83 1013.4
20260505181831 62 67 2.0 5.0 0.00 0.29 0.00 86 1012.4
20260505181828 60 162 0.0 0.0 0.07 1.39 0.00 91 1009.3
20260505181819 55 152 0.0 4.0 0.01 0.18 0.00 92 1011.4
20260505181815 58 182 1.0 3.0 0.01 0.09 0.00 88 1011.8
20260505181813 59 39 0.0 2.0 0.00 0.00 0.00 80 1013.2
20260505181345 66 175 4.0 10.0 0.00 0.00 0.00 72 1012.4
20260505181338 60 98 4.0 6.0 0.00 0.06 0.00 83 1013.4
20260505181334 61 162 0.0 2.0 0.07 1.39 0.00 91 1009.4
20260505181331 62 98 4.0 4.0 0.00 0.29 0.00 86 1012.4
20260505181321 58 124 1.0 5.0 0.01 0.09 0.00 88 1011.7
20260505181313 59 4 0.0 4.0 0.00 0.00 0.00 80 1013.3
20260505180844 66 172 4.0 10.0 0.00 0.00 0.00 71 1012.4
20260505180838 59 81 2.0 3.0 0.00 0.06 0.00 84 1013.4
20260505180835 52 336 1.0 4.0 0.00 0.34 0.00 88 1008.4
20260505180833 58 203 0.0 0.0 0.00 0.14 0.00 91 1011.2
20260505180831 62 63 4.0 6.0 0.00 0.29 0.00 85 1012.4
20260505180813 59 5 0.0 0.0 0.00 0.00 0.00 80 1013.3
20260505180344 66 202 3.0 10.0 0.00 0.00 0.00 71 1012.4
20260505180338 59 81 1.0 1.0 0.00 0.06 0.00 84 1013.4
20260505180334 62 48 5.0 6.0 0.00 0.29 0.00 85 1012.5
20260505180332 61 161 1.0 2.0 0.07 1.39 0.00 91 1009.4
20260505180330 58 203 0.0 0.0 0.00 0.14 0.00 91 1011.2
20260505180323 55 159 0.0 0.0 0.00 0.17 0.00 91 1011.3
20260505180319 60 53 0.0 0.0 0.00 0.00 0.00 79 1013.3
20260505180312 58 136 1.0 4.0 0.01 0.09 0.00 88 1011.6
20260505175844 66 181 6.0 11.0 0.00 0.00 0.00 71 1012.3
20260505175838 59 81 0.0 2.0 0.00 0.06 0.00 85 1013.4
20260505175833 52 331 1.0 3.0 0.00 0.34 0.00 88 1008.3
20260505175831 62 78 4.0 6.0 0.00 0.29 0.00 85 1012.4
20260505175828 61 157 1.0 2.0 0.07 1.39 0.00 91 1009.8
20260505175819 56 161 0.0 4.0 0.00 0.17 0.00 91 1011.4
20260505175815 58 72 2.0 9.0 0.01 0.09 0.00 88 1011.7
20260505175813 60 320 0.0 4.0 0.00 0.00 0.00 79 1013.3
20260505175348 66 188 4.0 12.0 0.00 0.00 0.00 70 1012.3
20260505175341 60 81 0.0 2.0 0.00 0.06 0.00 85 1013.4
20260505175336 56 158 0.0 0.0 0.00 0.17 0.00 90 1011.4
20260505175333 58 203 0.0 0.0 0.00 0.14 0.00 91 1011.2
20260505175331 62 80 4.0 8.0 0.00 0.29 0.00 85 1012.5
20260505175313 60 330 4.0 5.0 0.00 0.00 0.00 79 1013.3
20260505174846 66 316 0.0 0.0 0.00 2.27 0.00 85 1010.7
20260505174844 66 195 7.0 9.0 0.00 0.00 0.00 70 1012.4
20260505174839 52 311 2.0 5.0 0.00 0.34 0.00 88 1008.2
20260505174834 61 157 2.0 3.0 0.04 1.36 0.00 90 1009.8
20260505174831 63 67 5.0 6.0 0.00 0.29 0.00 85 1012.6
20260505174820 56 158 0.0 0.0 0.00 0.16 0.00 90 1011.4
20260505174816 60 320 0.0 4.0 0.00 0.00 0.00 79 1013.3
20260505174344 66 207 3.0 10.0 0.00 0.00 0.00 70 1012.3
20260505174338 60 81 4.0 5.0 0.00 0.06 0.00 84 1013.3
20260505174336 58 203 0.0 0.0 0.00 0.14 0.00 91 1011.2
20260505174328 61 48 1.0 2.0 0.02 1.34 0.00 90 1009.5
20260505174319 56 158 0.0 0.0 0.00 0.16 0.00 90 1011.3
20260505174315 59 123 4.0 9.0 0.02 0.09 0.00 87 1011.7
20260505174313 60 356 0.0 2.0 0.00 0.00 0.00 80 1013.3
20260505173844 66 203 6.0 10.0 0.00 0.00 0.00 70 1012.4
20260505173837 63 60 4.0 7.0 0.00 0.29 0.00 84 1012.3
20260505173833 58 203 0.0 0.0 0.00 0.14 0.00 91 1011.2
20260505173831 61 34 2.0 3.0 0.02 1.34 0.00 90 1009.5
20260505173820 56 158 0.0 1.0 0.00 0.16 0.00 90 1011.4
20260505173816 60 22 0.0 4.0 0.00 0.00 0.00 79 1013.3
20260505173812 59 178 6.0 11.0 0.01 0.08 0.00 87 1011.8
20260505173346 66 300 0.0 0.0 0.00 2.27 0.00 84 1010.7
20260505173341 66 169 8.0 10.0 0.00 0.00 0.00 69 1012.4
20260505173338 60 87 4.0 4.0 0.00 0.06 0.00 84 1013.3
20260505173333 52 323 3.0 5.0 0.00 0.34 0.00 88 1008.1
20260505173330 59 203 0.0 0.0 0.00 0.14 0.00 91 1011.2
20260505173322 56 161 0.0 4.0 0.00 0.16 0.00 90 1011.4
20260505173314 61 308 0.0 3.0 0.00 0.00 0.00 79 1013.4
20260505173312 59 146 4.0 8.0 0.01 0.08 0.00 86 1011.8
20260505172843 60 63 3.0 3.0 0.00 0.06 0.00 84 1013.4
20260505172841 66 180 3.0 10.0 0.00 0.00 0.00 69 1012.6
20260505172833 58 203 0.0 0.0 0.01 0.14 0.00 90 1011.3
20260505172831 63 67 4.0 10.0 0.00 0.29 0.00 83 1012.3
20260505172824 56 161 2.0 4.0 0.00 0.16 0.00 90 1011.4
20260505172816 61 319 0.0 4.0 0.00 0.00 0.00 79 1013.3
20260505172812 60 163 2.0 5.0 0.01 0.08 0.00 86 1011.9
20260505172341 60 63 2.0 4.0 0.00 0.06 0.00 84 1013.4
20260505172339 51 337 4.0 4.0 0.00 0.34 0.00 88 1008.1
20260505172337 63 61 11.0 11.0 0.00 0.29 0.00 83 1012.3
20260505172330 58 203 0.0 0.0 0.00 0.14 0.00 90 1011.2
20260505172325 56 148 0.0 0.0 0.00 0.16 0.00 89 1011.4
20260505172318 60 126 2.0 7.0 0.00 0.07 0.00 85 1011.8
20260505172314 61 334 2.0 5.0 0.00 0.00 0.00 79 1013.3
20260505171844 66 266 0.0 0.0 0.00 2.27 0.00 85 1010.7
20260505171841 66 213 6.0 11.0 0.00 0.00 0.00 69 1012.6
20260505171838 60 59 3.0 4.0 0.00 0.06 0.00 83 1013.5
20260505171836 51 324 3.0 5.0 0.00 0.34 0.00 88 1008.1
20260505171833 59 203 0.0 0.0 0.00 0.14 0.00 90 1011.3
20260505171831 64 78 4.0 13.0 0.00 0.29 0.00 83 1012.2
20260505171827 56 148 0.0 0.0 0.00 0.16 0.00 89 1011.4
20260505171814 61 342 3.0 6.0 0.00 0.00 0.00 78 1013.2
20260505171812 60 155 6.0 9.0 0.00 0.07 0.00 85 1011.8
20260505171341 61 59 3.0 6.0 0.00 0.06 0.00 82 1013.5
20260505171334 61 175 3.0 3.0 0.02 1.32 0.00 89 1009.5
20260505171331 64 61 4.0 11.0 0.00 0.29 0.00 83 1012.2
20260505171324 56 153 0.0 0.0 0.00 0.16 0.00 88 1011.3
20260505171317 62 4 3.0 5.0 0.00 0.00 0.00 78 1013.2
20260505171312 60 140 2.0 9.0 0.00 0.07 0.00 85 1011.7
20260505170842 67 216 4.0 13.0 0.00 0.00 0.00 67 1012.6
20260505170838 61 54 6.0 7.0 0.00 0.06 0.00 80 1013.4
20260505170834 64 65 4.0 9.0 0.00 0.29 0.00 83 1012.2
20260505170828 61 135 1.0 3.0 0.02 1.32 0.00 88 1009.5
20260505170825 56 153 0.0 0.0 0.00 0.16 0.00 87 1011.3
20260505170814 62 302 0.0 3.0 0.00 0.00 0.00 77 1013.1
20260505170812 60 172 5.0 5.0 0.00 0.07 0.00 85 1011.7
20260505170348 67 195 13.0 13.0 0.00 0.00 0.00 68 1012.6
20260505170343 67 206 0.0 0.0 0.00 2.27 0.00 84 1010.8
20260505170338 61 103 4.0 7.0 0.00 0.06 0.00 79 1013.3
20260505170334 64 71 3.0 10.0 0.00 0.29 0.00 83 1012.2
20260505170330 59 203 0.0 0.0 0.02 0.14 0.00 90 1011.3
20260505170328 61 134 1.0 7.0 0.02 1.32 0.00 88 1009.5
20260505170325 56 153 0.0 0.0 0.00 0.16 0.00 87 1011.3
20260505170318 60 234 4.0 8.0 0.00 0.07 0.00 84 1011.7
20260505170314 62 283 0.0 6.0 0.00 0.00 0.00 77 1013.2
20260505165845 67 213 11.0 14.0 0.00 0.00 0.00 68 1012.5
20260505165838 61 136 3.0 4.0 0.00 0.06 0.00 78 1013.5
20260505165836 51 334 2.0 3.0 0.00 0.34 0.00 88 1008.1
20260505165831 61 181 1.0 5.0 0.02 1.32 0.00 87 1009.7
20260505165822 55 153 0.0 0.0 0.00 0.16 0.00 88 1011.3
20260505165814 62 281 1.0 6.0 0.00 0.00 0.00 77 1013.3
20260505165812 60 127 3.0 10.0 0.00 0.07 0.00 83 1011.8
20260505165344 67 229 7.0 13.0 0.00 0.00 0.00 66 1012.6
20260505165340 65 81 8.0 12.0 0.00 0.29 0.00 82 1012.2
20260505165338 61 61 4.0 8.0 0.00 0.06 0.00 77 1013.4
20260505165336 59 203 0.0 1.0 0.02 0.14 0.00 89 1011.4
20260505165333 51 355 2.0 4.0 0.00 0.34 0.00 88 1008.2
20260505165331 61 191 0.0 4.0 0.02 1.32 0.00 87 1009.7
20260505165323 56 153 0.0 0.0 0.00 0.16 0.00 89 1011.3
20260505165315 61 132 5.0 8.0 0.00 0.07 0.00 82 1011.8
20260505164846 67 133 0.0 0.0 0.00 2.27 0.00 85 1010.8
20260505164844 61 140 2.0 8.0 0.00 0.06 0.00 78 1013.4
20260505164836 51 355 3.0 6.0 0.00 0.34 0.00 88 1008.3
20260505164833 59 203 0.0 1.0 0.02 0.14 0.00 89 1011.4
20260505164831 62 171 1.0 6.0 0.02 1.32 0.00 87 1009.7
20260505164819 56 153 0.0 2.0 0.00 0.16 0.00 90 1011.4
20260505164814 62 316 0.0 7.0 0.00 0.00 0.00 77 1013.4
20260505164812 61 187 3.0 7.0 0.00 0.07 0.00 81 1011.7
20260505164344 68 210 5.0 13.0 0.00 0.00 0.00 64 1012.5
20260505164340 64 86 5.0 12.0 0.00 0.29 0.00 83 1012.3
20260505164336 59 203 0.0 2.0 0.02 0.14 0.00 89 1011.4
20260505164332 62 139 1.0 6.0 0.02 1.32 0.00 86 1009.9
20260505164319 56 153 1.0 3.0 0.00 0.16 0.00 91 1011.5
20260505164314 62 300 4.0 5.0 0.00 0.00 0.00 77 1013.4
20260505164312 61 136 4.0 6.0 0.00 0.07 0.00 81 1011.8
20260505163844 68 236 10.0 12.0 0.00 0.00 0.00 63 1012.5
20260505163838 61 126 1.0 6.0 0.00 0.06 0.00 79 1013.4
20260505163831 65 45 4.0 8.0 0.00 0.29 0.00 84 1012.3
20260505163828 62 117 5.0 11.0 0.02 1.32 0.00 84 1009.9
20260505163819 56 153 0.0 3.0 0.00 0.16 0.00 90 1011.5
20260505163814 62 320 4.0 6.0 0.00 0.00 0.00 77 1013.4
20260505163812 61 144 3.0 5.0 0.00 0.07 0.00 81 1011.7
20260505163347 68 222 7.0 11.0 0.00 0.00 0.00 63 1012.5
20260505163343 67 11 0.0 0.0 0.00 2.27 0.00 85 1010.8
20260505163338 61 101 3.0 8.0 0.00 0.06 0.00 79 1013.4
20260505163333 51 335 3.0 5.0 0.00 0.34 0.00 88 1008.3
20260505163331 65 102 2.0 10.0 0.00 0.29 0.00 83 1012.4
20260505163328 63 120 5.0 13.0 0.02 1.32 0.00 84 1009.9
20260505163323 62 282 3.0 6.0 0.00 0.00 0.00 77 1013.4
20260505163319 56 151 1.0 3.0 0.00 0.16 0.00 90 1011.6
20260505163312 61 107 3.0 6.0 0.00 0.07 0.00 81 1011.7
20260505162841 68 195 7.0 11.0 0.00 0.00 0.00 62 1012.4
20260505162838 61 58 6.0 8.0 0.00 0.06 0.00 80 1013.2
20260505162834 65 68 2.0 7.0 0.00 0.29 0.00 84 1012.4
20260505162829 65 110 12.0 13.0 0.02 1.32 0.00 83 1009.5
20260505162822 57 152 0.0 3.0 0.00 0.16 0.00 90 1011.7
20260505162817 62 319 0.0 6.0 0.00 0.00 0.00 77 1013.4
20260505162815 61 235 0.0 6.0 0.00 0.07 0.00 80 1011.8
20260505162345 69 193 9.0 12.0 0.00 0.00 0.00 61 1012.4
20260505162341 61 59 5.0 10.0 0.00 0.06 0.00 82 1013.3
20260505162334 64 113 4.0 10.0 0.00 0.29 0.00 84 1012.4
20260505162332 66 130 7.0 10.0 0.00 1.30 0.00 84 1009.5
20260505162320 62 302 4.0 5.0 0.00 0.00 0.00 77 1013.4
20260505162312 62 169 4.0 8.0 0.00 0.07 0.00 79 1011.8
20260505161846 69 208 8.0 13.0 0.00 0.00 0.00 60 1012.5
20260505161843 67 311 0.0 0.0 0.00 2.27 0.00 85 1010.9
20260505161841 61 48 6.0 11.0 0.00 0.06 0.00 82 1013.5
20260505161837 64 59 2.0 9.0 0.00 0.29 0.00 84 1012.4
20260505161834 51 34 2.0 4.0 0.00 0.34 0.00 89 1008.4
20260505161830 60 203 1.0 3.0 0.01 0.13 0.00 86 1011.4
20260505161820 62 299 2.0 4.0 0.00 0.00 0.00 79 1013.5
20260505161818 62 181 5.0 9.0 0.00 0.07 0.00 79 1011.7
20260505161343 61 65 6.0 7.0 0.00 0.06 0.00 82 1013.5
20260505161340 69 217 3.0 8.0 0.00 0.00 0.00 60 1012.6
20260505161334 51 327 4.0 4.0 0.00 0.34 0.00 88 1008.4
20260505161331 64 71 6.0 11.0 0.00 0.29 0.00 84 1012.3
20260505161319 56 153 0.0 0.0 0.00 0.16 0.00 87 1011.6
20260505161314 62 304 0.0 5.0 0.00 0.00 0.00 79 1013.5
20260505160842 69 215 4.0 13.0 0.00 0.00 0.00 58 1012.6
20260505160840 64 80 7.0 10.0 0.00 0.29 0.00 84 1012.3
20260505160838 60 101 3.0 8.0 0.00 0.06 0.00 82 1013.6
20260505160833 61 203 0.0 2.0 0.00 0.12 0.00 86 1011.4
20260505160822 56 153 0.0 0.0 0.00 0.16 0.00 87 1011.7
20260505160817 62 334 4.0 5.0 0.00 0.00 0.00 79 1013.6
20260505160815 62 148 4.0 9.0 0.00 0.07 0.00 79 1011.8
20260505160348 69 189 6.0 13.0 0.00 0.00 0.00 57 1012.6
20260505160346 67 292 0.0 0.0 0.00 2.27 0.00 84 1010.9
20260505160338 60 93 6.0 10.0 0.00 0.06 0.00 82 1013.6
20260505160334 51 14 2.0 7.0 0.00 0.34 0.00 88 1008.3
20260505160330 61 203 3.0 3.0 0.00 0.11 0.00 84 1011.5
20260505160328 67 150 3.0 8.0 0.00 1.30 0.00 81 1009.1
20260505160325 56 154 0.0 0.0 0.00 0.16 0.00 87 1011.6
20260505160315 62 180 2.0 4.0 0.00 0.07 0.00 78 1011.9
20260505153347 60 83 4.0 10.0 0.00 0.06 0.00 80 1013.8
20260505153345 67 314 0.0 0.0 0.00 2.27 0.00 85 1011.0
20260505153343 69 212 4.0 12.0 0.00 0.00 0.00 56 1012.7
20260505153334 51 14 5.0 7.0 0.00 0.34 0.00 88 1008.4
20260505153331 65 113 4.0 8.0 0.00 0.29 0.00 83 1012.4
20260505153329 66 175 2.0 9.0 0.00 1.30 0.00 83 1009.3
20260505153319 57 163 0.0 0.0 0.00 0.16 0.00 87 1011.7
20260505153317 63 32 2.0 3.0 0.00 0.00 0.00 78 1013.6
20260505153312 61 219 5.0 7.0 0.00 0.07 0.00 78 1011.9
20260505152847 60 63 6.0 9.0 0.00 0.06 0.00 80 1013.8
20260505152845 69 197 7.0 12.0 0.00 0.00 0.00 57 1012.8
20260505152834 51 30 3.0 4.0 0.00 0.33 0.00 88 1008.4
20260505152829 66 104 5.0 6.0 0.00 1.30 0.00 83 1009.3
20260505152820 56 163 0.0 0.0 0.00 0.16 0.00 89 1011.7
20260505152814 63 329 0.0 5.0 0.00 0.00 0.00 78 1013.5
20260505152812 61 178 5.0 10.0 0.00 0.07 0.00 79 1011.8
20260505152340 51 355 1.0 6.0 0.00 0.33 0.00 88 1008.3
20260505152338 60 73 7.0 11.0 0.00 0.06 0.00 80 1013.7
20260505152336 61 203 2.0 3.0 0.00 0.11 0.00 80 1011.4
20260505152332 66 176 3.0 10.0 0.00 1.30 0.00 83 1009.3
20260505152325 56 163 0.0 0.0 0.00 0.16 0.00 89 1011.7
20260505152318 61 165 4.0 4.0 0.00 0.07 0.00 79 1011.9
20260505152314 63 356 4.0 4.0 0.00 0.00 0.00 77 1013.5
20260505151846 67 266 0.0 0.0 0.00 2.27 0.00 85 1011.0
20260505151844 69 201 5.0 10.0 0.00 0.00 0.00 60 1012.8
20260505151838 60 54 6.0 10.0 0.00 0.06 0.00 79 1013.8
20260505151834 51 342 2.0 10.0 0.01 0.33 0.00 88 1008.2
20260505151832 66 119 6.0 12.0 0.00 1.30 0.00 83 1009.3
20260505151830 61 203 0.0 1.0 0.00 0.11 0.00 82 1011.4
20260505151824 56 163 0.0 0.0 0.00 0.16 0.00 89 1011.8
20260505151821 61 176 2.0 5.0 0.00 0.07 0.00 79 1011.9
20260505151817 63 319 0.0 4.0 0.00 0.00 0.00 77 1013.6
20260505151344 60 65 9.0 11.0 0.00 0.06 0.00 78 1013.8
20260505151341 69 184 5.0 11.0 0.00 0.00 0.00 59 1012.9
20260505151337 51 5 6.0 9.0 0.01 0.33 0.00 88 1008.1
20260505151334 66 110 4.0 7.0 0.00 0.29 0.00 81 1012.4
20260505151332 66 180 3.0 12.0 0.00 1.30 0.00 83 1009.4
20260505151330 61 203 0.0 3.0 0.00 0.11 0.00 80 1011.4
20260505151319 56 163 0.0 0.0 0.00 0.16 0.00 89 1011.8
20260505151314 63 326 1.0 6.0 0.00 0.00 0.00 76 1013.6
20260505151312 61 172 2.0 4.0 0.00 0.07 0.00 78 1011.9
20260505150844 60 64 10.0 10.0 0.00 0.06 0.00 77 1013.8
20260505150834 51 346 2.0 6.0 0.01 0.33 0.00 88 1008.1
20260505150831 66 65 3.0 8.0 0.00 0.29 0.00 81 1012.5
20260505150829 66 151 3.0 10.0 0.00 1.30 0.00 82 1009.4
20260505150821 61 227 2.0 2.0 0.00 0.07 0.00 79 1011.9
20260505150819 56 163 0.0 2.0 0.00 0.16 0.00 90 1011.8
20260505150344 69 212 5.0 11.0 0.00 0.00 0.00 60 1012.9
20260505150341 60 53 5.0 10.0 0.00 0.06 0.00 77 1013.7
20260505150337 66 84 2.0 5.0 0.00 0.29 0.00 82 1012.5
20260505150334 51 325 5.0 10.0 0.03 0.33 0.00 88 1008.1
20260505150330 61 203 0.0 0.0 0.00 0.11 0.00 83 1011.3
20260505150324 56 163 2.0 2.0 0.00 0.16 0.00 90 1011.8
20260505150317 63 357 3.0 5.0 0.00 0.00 0.00 75 1013.7
20260505150312 61 194 0.0 0.0 0.00 0.07 0.00 79 1011.9
20260505140351 66 331 0.0 0.0 0.00 2.27 0.00 90 1011.1
20260505140343 70 242 5.0 13.0 0.00 0.00 0.00 60 1013.1
20260505140341 61 67 8.0 15.0 0.00 0.06 0.00 72 1013.8
20260505140338 63 163 9.0 15.0 0.00 1.30 0.00 90 1009.5
20260505140334 51 355 9.0 11.0 0.00 0.30 0.00 88 1008.3
20260505140331 64 83 2.0 8.0 0.00 0.29 0.00 87 1012.7
20260505140322 55 98 0.0 0.0 0.02 0.15 0.00 90 1012.1
20260505140317 62 314 2.0 4.0 0.00 0.00 0.00 77 1013.7
20260505140312 61 180 0.0 0.0 0.00 0.07 0.00 78 1012.3
20260505130312 62 125 0.0 7.0 0.00 0.06 0.00 77 1012.8
20260505124846 63 106 0.0 5.0 0.43 2.27 0.00 94 1011.5
20260505124844 60 85 5.0 9.0 0.01 0.06 0.00 77 1014.5
20260505124840 74 271 2.0 11.0 0.00 0.00 0.00 53 1013.4
20260505124837 51 29 6.0 10.0 0.00 0.30 0.00 89 1008.9
20260505124831 63 109 6.0 10.0 0.00 0.29 0.00 86 1013.3
20260505124829 60 164 2.0 3.0 0.04 1.30 0.00 96 1010.1
20260505124822 58 167 3.0 4.0 0.00 0.13 0.00 88 1012.4
20260505124814 63 334 2.0 3.0 0.00 0.00 0.00 69 1014.1
20260505124812 61 179 8.0 9.0 0.00 0.06 0.00 74 1012.7
20260505124343 74 221 9.0 14.0 0.00 0.00 0.00 52 1013.4
20260505124341 60 68 6.0 9.0 0.01 0.06 0.00 76 1014.5
20260505124337 51 11 4.0 11.0 0.00 0.30 0.00 89 1008.9
20260505124334 63 78 3.0 8.0 0.00 0.29 0.00 87 1013.4
20260505124332 60 219 0.0 2.0 0.04 1.30 0.00 95 1010.5
20260505124320 58 171 4.0 4.0 0.01 0.13 0.00 89 1012.3
20260505124315 63 299 0.0 2.0 0.00 0.00 0.00 68 1014.0
20260505123849 74 212 9.0 14.0 0.00 0.00 0.00 48 1013.5
20260505123838 51 66 4.0 11.0 0.00 0.30 0.00 89 1008.9
20260505123836 59 38 0.0 0.0 0.01 0.11 0.00 86 1012.3
20260505123834 63 64 1.0 9.0 0.00 0.29 0.00 87 1013.4
20260505123832 60 217 1.0 2.0 0.03 1.29 0.00 96 1010.5
20260505123819 58 143 3.0 4.0 0.01 0.13 0.00 89 1012.2
20260505123817 63 280 0.0 4.0 0.00 0.00 0.00 69 1014.0